EW3082 Weather Reports


time (UTC)temp
C
wind
direction
speed
KPH
gust
KPH
rain 1hr
cm
rain 24hr
cm
rain mn
cm
humidity
%
barometer
mb
20260507205415 20 276 8.0 20.9 0.00 15.06 15.04 44 1012.4
20260507205310 20 284 6.4 20.9 0.00 15.06 15.04 45 1012.4
20260507205214 20 293 8.0 20.9 0.00 15.06 15.04 44 1012.4
20260507205109 20 287 8.0 20.9 0.00 15.06 15.04 44 1012.5
20260507205012 20 245 9.7 20.9 0.00 15.06 15.04 44 1012.5
20260507204908 20 281 8.0 20.9 0.00 15.06 15.04 43 1012.5
20260507204807 20 215 6.4 19.3 0.00 15.06 15.04 45 1012.5
20260507204711 20 106 8.0 20.9 0.00 15.06 15.04 45 1012.6
20260507204606 20 39 8.0 20.9 0.00 15.06 15.04 45 1012.5
20260507204530 20 167 6.4 20.9 0.00 15.06 15.04 46 1012.5
20260507204510 20 196 4.8 20.9 0.00 15.06 15.04 45 1012.5
20260507204425 20 281 4.8 20.9 0.00 15.06 15.04 45 1012.5
20260507204319 20 195 8.0 20.9 0.00 15.06 15.04 45 1012.6
20260507204214 20 299 8.0 20.9 0.00 15.06 15.04 45 1012.6
20260507204122 20 274 8.0 20.9 0.00 15.06 15.04 46 1012.6
20260507204017 20 290 11.3 20.9 0.00 15.06 15.04 45 1012.7
20260507203921 20 333 9.7 20.9 0.00 15.06 15.04 45 1012.7
20260507203815 20 263 8.0 20.9 0.00 15.06 15.04 45 1012.8
20260507203710 20 283 3.2 22.5 0.00 15.06 15.04 44 1012.7
20260507203605 20 222 6.4 22.5 0.00 15.06 15.04 45 1012.7
20260507203509 20 99 9.7 22.5 0.00 15.06 15.04 45 1012.8
20260507203408 20 156 9.7 22.5 0.00 15.06 15.04 45 1012.7
20260507203313 20 205 6.4 22.5 0.00 15.06 15.04 46 1012.9
20260507203207 20 187 4.8 22.5 0.00 15.06 15.04 46 1012.9
20260507203132 20 291 4.8 22.5 0.00 15.06 15.04 46 1012.9
20260507203121 20 309 8.0 22.5 0.00 15.06 15.04 46 1012.8
20260507203026 20 148 6.4 22.5 0.00 15.06 15.04 47 1012.8
20260507202919 20 20 8.0 20.9 0.00 15.06 15.04 47 1012.8
20260507202814 20 290 9.7 20.9 0.00 15.06 15.04 46 1013.0
20260507202721 20 224 9.7 20.9 0.00 15.06 15.04 45 1012.9
20260507202616 20 298 11.3 20.9 0.00 15.06 15.04 45 1012.9
20260507202511 20 270 11.3 20.9 0.00 15.06 15.04 45 1013.1
20260507202435 20 279 4.8 20.9 0.00 15.06 15.04 46 1013.0
20260507202337 20 268 1.6 20.9 0.00 15.06 15.04 47 1013.0
20260507202211 20 172 4.8 20.9 0.00 15.06 15.04 49 1013.0
20260507202106 20 295 4.8 24.1 0.00 15.06 15.04 48 1013.0
20260507202030 20 90 6.4 24.1 0.00 15.06 15.04 48 1013.0
20260507201937 20 124 8.0 24.1 0.00 15.06 15.04 47 1013.0
20260507201811 20 195 8.0 24.1 0.00 15.06 15.04 47 1013.1
20260507201715 20 150 6.4 24.1 0.00 15.06 15.04 47 1013.1
20260507201656 19 138 6.4 24.1 0.00 15.06 15.04 46 1013.1
20260507201610 20 15 9.7 24.1 0.00 15.06 15.04 46 1013.1
20260507201534 20 298 8.0 24.1 0.00 15.06 15.04 47 1013.1
20260507201428 20 315 8.0 24.1 0.00 15.06 15.04 46 1013.1
20260507201311 20 231 8.0 24.1 0.00 15.06 15.04 47 1013.1
20260507201205 20 204 6.4 24.1 0.00 15.06 15.04 45 1013.2
20260507201133 20 244 8.0 24.1 0.00 15.06 15.04 45 1013.2
20260507201027 20 267 8.0 24.1 0.00 15.06 15.04 44 1013.3
20260507200951 20 294 6.4 24.1 0.00 15.06 15.04 45 1013.2
20260507200805 20 179 8.0 20.9 0.00 15.06 15.04 45 1013.2
20260507200720 20 127 8.0 20.9 0.00 15.06 15.04 45 1013.2
20260507200643 20 216 8.0 20.9 0.00 15.06 15.04 45 1013.3
20260507200516 20 243 9.7 20.9 0.00 15.06 15.04 45 1013.3
20260507200411 20 353 9.7 20.9 0.00 15.06 15.04 45 1013.4
20260507200318 21 263 8.0 20.9 0.00 15.06 15.04 46 1013.2
20260507200213 21 267 6.4 17.7 0.00 15.06 15.04 46 1013.3
20260507200128 21 336 4.8 17.7 0.00 15.06 15.04 46 1013.3
20260507200042 20 198 4.8 17.7 0.00 15.06 15.04 48 1013.3
20260507200008 20 257 6.4 17.7 0.00 15.06 15.04 48 1013.3
20260507195930 20 183 6.4 17.7 0.00 15.06 15.04 46 1013.3
20260507195805 20 116 3.2 14.5 0.00 15.06 15.04 47 1013.3
20260507195719 20 230 3.2 14.5 0.00 15.06 15.04 48 1013.3
20260507195626 20 129 3.2 14.5 0.00 15.06 15.04 48 1013.3
20260507195521 20 141 3.2 14.5 0.00 15.06 15.04 48 1013.3
20260507195415 20 220 4.8 14.5 0.00 15.06 15.04 48 1013.3
20260507195319 20 186 6.4 14.5 0.00 15.06 15.04 48 1013.3
20260507195213 20 226 4.8 14.5 0.00 15.06 15.04 47 1013.3
20260507195108 20 223 3.2 16.1 0.00 15.06 15.04 49 1013.3
20260507195016 20 233 6.4 19.3 0.00 15.06 15.04 48 1013.4
20260507194911 20 261 6.4 19.3 0.00 15.06 15.04 47 1013.4
20260507194805 20 240 8.0 19.3 0.00 15.06 15.04 46 1013.3
20260507194729 20 191 8.0 19.3 0.00 15.06 15.04 47 1013.5
20260507194632 20 275 6.4 19.3 0.00 15.06 15.04 48 1013.3
20260507194545 20 168 4.8 20.9 0.00 15.06 15.04 48 1013.3
20260507194505 20 236 4.8 29.0 0.00 15.06 15.04 47 1013.3
20260507194430 20 255 6.4 29.0 0.00 15.06 15.04 46 1013.3
20260507194345 20 222 9.7 29.0 0.00 15.06 15.04 47 1013.4
20260507194227 20 243 9.7 29.0 0.00 15.06 15.04 46 1013.4
20260507194126 20 286 6.4 29.0 0.00 15.06 15.04 47 1013.4
20260507194049 20 306 4.8 29.0 0.00 15.06 15.04 47 1013.4
20260507193943 20 333 6.4 29.0 0.00 15.06 15.04 47 1013.5
20260507193827 20 160 8.0 29.0 0.00 15.06 15.04 46 1013.5
20260507193741 20 150 9.7 29.0 0.00 15.06 15.04 48 1013.4
20260507193624 20 281 8.0 29.0 0.00 15.06 15.04 48 1013.4
20260507193518 20 219 6.4 24.1 0.00 15.06 15.04 48 1013.5
20260507193413 20 129 6.4 24.1 0.00 15.06 15.04 48 1013.5
20260507193322 19 154 6.4 24.1 0.00 15.06 15.04 47 1013.5
20260507193215 19 255 9.7 24.1 0.00 15.06 15.04 47 1013.6
20260507193119 20 304 9.7 24.1 0.00 15.06 15.04 47 1013.5
20260507193052 19 295 9.7 24.1 0.00 15.06 15.04 48 1013.5
20260507193016 20 300 9.7 24.1 0.00 15.06 15.04 48 1013.5
20260507192918 20 248 9.7 24.1 0.00 15.06 15.04 47 1013.6
20260507192813 20 332 11.3 24.1 0.00 15.06 15.04 47 1013.5
20260507192708 20 231 11.3 24.1 0.00 15.06 15.04 47 1013.6
20260507192616 20 217 8.0 22.5 0.00 15.06 15.04 47 1013.7
20260507192511 20 268 4.8 22.5 0.00 15.06 15.04 47 1013.7
20260507192436 19 195 8.0 22.5 0.00 15.06 15.04 47 1013.7
20260507192307 19 179 9.7 22.5 0.00 15.06 15.04 50 1013.6
20260507192222 19 116 6.4 22.5 0.00 15.06 15.04 50 1013.6
20260507192127 19 155 4.8 22.5 0.00 15.06 15.04 50 1013.6
20260507192022 19 339 4.8 22.5 0.00 15.06 15.04 48 1013.7
20260507191920 19 261 6.4 22.5 0.00 15.06 15.04 49 1013.8
20260507191824 19 218 11.3 22.5 0.00 15.06 15.04 47 1013.8
20260507191718 19 31 11.3 19.3 0.00 15.06 15.04 47 1013.8
20260507191643 19 215 9.7 19.3 0.00 15.06 15.04 47 1013.8
20260507191554 18 269 8.0 19.3 0.00 15.06 15.04 47 1013.7
20260507191536 19 260 8.0 19.3 0.00 15.06 15.04 47 1013.8
20260507191417 19 257 6.4 20.9 0.00 15.06 15.04 48 1013.7
20260507191312 19 8 8.0 25.7 0.00 15.06 15.04 48 1013.8
20260507191215 19 290 9.7 25.7 0.00 15.06 15.04 48 1013.8
20260507191114 19 276 8.0 25.7 0.00 15.06 15.04 49 1013.8
20260507191009 19 217 9.7 25.7 0.00 15.06 15.04 49 1013.8
20260507190913 19 263 6.4 25.7 0.00 15.06 15.04 49 1013.8
20260507190808 19 188 4.8 25.7 0.00 15.06 15.04 50 1013.8
20260507190732 19 96 6.4 25.7 0.00 15.06 15.04 49 1013.8
20260507190627 18 245 9.7 25.7 0.00 15.06 15.04 49 1013.9
20260507190551 19 188 9.7 25.7 0.00 15.06 15.04 49 1014.0
20260507190409 19 297 8.0 19.3 0.00 15.06 15.04 48 1014.0
20260507190324 19 238 6.4 16.1 0.00 15.06 15.04 48 1014.0
20260507190228 19 266 6.4 16.1 0.00 15.06 15.04 48 1014.0
20260507190155 19 247 6.4 16.1 0.00 15.06 15.04 48 1014.0
20260507190132 19 198 6.4 16.1 0.00 15.06 15.04 48 1014.0
20260507190021 19 283 8.0 16.1 0.00 15.06 15.04 48 1014.0
20260507185912 19 148 9.7 16.1 0.00 15.06 15.04 49 1014.0
20260507185805 19 207 6.4 16.1 0.00 15.06 15.04 49 1013.9
20260507185728 19 169 6.4 16.1 0.00 15.06 15.04 50 1013.9
20260507185606 19 108 8.0 16.1 0.00 15.06 15.04 48 1014.0
20260507185530 19 248 6.4 16.1 0.00 15.06 15.04 49 1014.0
20260507185453 19 349 4.8 16.1 0.00 15.06 15.04 50 1014.2
20260507185327 19 201 8.0 20.9 0.00 15.06 15.04 49 1014.1
20260507185229 18 218 8.0 20.9 0.00 15.06 15.04 49 1014.1
20260507185124 18 69 8.0 20.9 0.00 15.06 15.04 50 1014.1
20260507185018 18 85 4.8 20.9 0.00 15.06 15.04 51 1014.2
20260507184922 18 240 6.4 20.9 0.00 15.06 15.04 50 1014.3
20260507184820 19 169 6.4 20.9 0.00 15.06 15.04 49 1014.3
20260507184715 19 245 4.8 20.9 0.00 15.06 15.04 51 1014.3
20260507184619 19 84 6.4 20.9 0.00 15.06 15.04 49 1014.3
20260507184605 18 259 6.4 20.9 0.00 15.06 15.04 49 1014.3
20260507184512 19 304 8.0 20.9 0.00 15.06 15.04 48 1014.3
20260507184415 19 260 4.8 20.9 0.00 15.06 15.04 50 1014.3
20260507184310 19 86 6.4 20.9 0.00 15.06 15.04 50 1014.4
20260507184233 19 276 6.4 20.9 0.00 15.06 15.04 49 1014.3
20260507184110 19 268 6.4 20.9 0.00 15.06 15.04 50 1014.4
20260507184034 19 248 4.8 20.9 0.00 15.06 15.04 51 1014.4
20260507183908 18 253 4.8 20.9 0.00 15.06 15.04 51 1014.4
20260507183832 18 287 4.8 20.9 0.00 15.06 15.04 50 1014.4
20260507183707 18 278 6.4 20.9 0.00 15.06 15.04 50 1014.4
20260507183622 18 271 8.0 20.9 0.00 15.06 15.04 50 1014.5
20260507183526 18 279 8.0 22.5 0.00 15.06 15.04 51 1014.5
20260507183405 18 259 6.4 22.5 0.00 15.06 15.04 50 1014.5
20260507183320 18 271 6.4 22.5 0.00 15.06 15.04 50 1014.5
20260507183223 18 277 8.0 22.5 0.00 15.06 15.04 49 1014.5
20260507183117 18 217 9.7 22.5 0.00 15.06 15.04 49 1014.4
20260507183022 18 83 8.0 22.5 0.00 15.06 15.04 50 1014.5
20260507182933 18 149 8.0 22.5 0.00 15.06 15.04 50 1014.4
20260507182816 18 217 9.7 22.5 0.00 15.06 15.04 49 1014.5
20260507182731 18 203 6.4 22.5 0.00 15.06 15.04 50 1014.5
20260507182614 18 269 6.4 20.9 0.00 15.06 15.04 50 1014.4
20260507182512 18 268 8.0 20.9 0.00 15.06 15.04 50 1014.5
20260507182416 18 211 9.7 20.9 0.00 15.06 15.04 51 1014.5
20260507182311 18 44 8.0 20.9 0.00 15.06 15.04 51 1014.4
20260507182206 18 113 4.8 16.1 0.00 15.06 15.04 53 1014.5
20260507182109 18 222 4.8 16.1 0.00 15.06 15.04 52 1014.5
20260507182005 18 315 4.8 16.1 0.00 15.06 15.04 51 1014.5
20260507181929 18 167 6.4 16.1 0.00 15.06 15.04 50 1014.5
20260507181808 18 151 6.4 16.1 0.00 15.06 15.04 51 1014.5
20260507181723 18 229 8.0 16.1 0.00 15.06 15.04 52 1014.5
20260507181605 18 272 6.4 19.3 0.00 15.06 15.04 52 1014.5
20260507181544 18 240 6.4 19.3 0.00 15.06 15.04 52 1014.5
20260507181517 18 195 4.8 19.3 0.00 15.06 15.04 52 1014.7
20260507181441 18 279 4.8 20.9 0.00 15.06 15.04 53 1014.7
20260507181315 18 144 4.8 20.9 0.00 15.06 15.04 53 1014.7
20260507181219 18 84 8.0 20.9 0.00 15.06 15.04 53 1014.8
20260507181114 18 273 8.0 20.9 0.00 15.06 15.04 51 1014.8
20260507181041 18 250 8.0 20.9 0.00 15.06 15.04 51 1014.7
20260507180914 18 125 9.7 20.9 0.00 15.06 15.04 51 1014.9
20260507180839 18 254 9.7 20.9 0.00 15.06 15.04 51 1014.8
20260507180713 18 252 9.7 20.9 0.00 15.06 15.04 51 1014.9
20260507180607 18 284 9.7 20.9 0.00 15.06 15.04 51 1014.9
20260507180512 18 274 8.0 20.9 0.00 15.06 15.04 53 1014.9
20260507180407 18 217 6.4 17.7 0.00 15.06 15.04 54 1014.9
20260507180331 17 188 4.8 20.9 0.00 15.06 15.04 55 1014.9
20260507180208 17 115 1.6 20.9 0.00 15.06 15.04 56 1014.9
20260507180143 17 275 1.6 20.9 0.00 15.06 15.04 54 1014.9
20260507180055 17 286 0.0 20.9 0.00 15.06 15.04 55 1014.9
20260507180024 17 210 1.6 20.9 0.00 15.06 15.04 55 1014.9
20260507175915 17 137 4.8 20.9 0.00 15.06 15.04 53 1014.9
20260507175819 17 281 6.4 22.5 0.00 15.06 15.04 54 1014.9
20260507175714 17 86 4.8 22.5 0.00 15.06 15.04 53 1015.0
20260507175610 17 279 8.0 22.5 0.00 15.06 15.04 53 1015.0
20260507175538 17 274 8.0 22.5 0.00 15.06 15.04 52 1015.0
20260507175442 17 209 4.8 22.5 0.00 15.06 15.04 53 1015.0
20260507175345 17 115 3.2 22.5 0.00 15.06 15.04 54 1015.0
20260507175216 17 285 6.4 22.5 0.00 15.06 15.04 53 1015.0
20260507175109 17 200 11.3 22.5 0.00 15.06 15.04 52 1015.0
20260507175013 17 289 9.7 22.5 0.00 15.06 15.04 52 1015.0
20260507174907 17 300 8.0 22.5 0.00 15.06 15.04 52 1015.0
20260507174832 17 302 8.0 22.5 0.00 15.06 15.04 52 1015.0
20260507174705 17 231 6.4 22.5 0.00 15.06 15.04 52 1015.1
20260507174613 17 170 6.4 24.1 0.00 15.06 15.04 52 1015.1
20260507174544 17 297 6.4 24.1 0.00 15.06 15.04 53 1015.1
20260507174508 17 238 9.7 24.1 0.00 15.06 15.04 53 1015.1
20260507174414 17 271 12.9 24.1 0.00 15.06 15.04 52 1015.1
20260507174307 17 280 9.7 24.1 0.00 15.06 15.04 51 1015.1
20260507174220 17 248 9.7 24.1 0.00 15.06 15.04 50 1015.1
20260507174124 17 277 9.7 24.1 0.00 15.06 15.04 51 1015.1
20260507174019 17 283 8.0 24.1 0.00 15.06 15.04 50 1015.2
20260507173926 18 81 11.3 24.1 0.00 15.06 15.04 50 1015.2
20260507173821 18 266 11.3 24.1 0.00 15.06 15.04 50 1015.2
20260507173716 18 207 8.0 24.1 0.00 15.06 15.04 53 1015.3
20260507173611 17 308 6.4 24.1 0.00 15.06 15.04 53 1015.3
20260507173514 17 255 6.4 24.1 0.00 15.06 15.04 53 1015.1
20260507173409 17 295 9.7 24.1 0.00 15.06 15.04 52 1015.2
20260507173305 17 342 8.0 24.1 0.00 15.06 15.04 52 1015.2
20260507173212 17 262 9.7 24.1 0.00 15.06 15.04 51 1015.2
20260507173141 17 268 9.7 24.1 0.00 15.06 15.04 51 1015.2
20260507173108 17 210 11.3 24.1 0.00 15.06 15.04 51 1015.2
20260507173034 17 221 8.0 20.9 0.00 15.06 15.04 52 1015.1
20260507172906 18 272 9.7 20.9 0.00 15.06 15.04 50 1015.2
20260507172830 18 269 9.7 20.9 0.00 15.06 15.04 50 1015.2
20260507172725 18 351 9.7 20.9 0.00 15.06 15.04 50 1015.2
20260507172649 18 215 6.4 20.9 0.00 15.06 15.04 52 1015.1
20260507172506 17 321 8.0 20.9 0.00 15.06 15.04 51 1015.2
20260507172430 17 328 9.7 20.9 0.00 15.06 15.04 51 1015.2
20260507172325 17 220 8.0 20.9 0.00 15.06 15.04 51 1015.2
20260507172219 17 248 8.0 19.3 0.00 15.06 15.04 52 1015.3
20260507172113 18 281 9.7 19.3 0.00 15.06 15.04 50 1015.4
20260507172017 18 185 9.7 19.3 0.00 15.06 15.04 50 1015.4
20260507171932 18 230 6.4 16.1 0.00 15.06 15.04 51 1015.4
20260507171834 18 285 6.4 16.1 0.00 15.06 15.04 52 1015.4
20260507171722 18 290 6.4 24.1 0.00 15.06 15.04 52 1015.4
20260507171614 18 240 4.8 24.1 0.00 15.06 15.04 52 1015.4
20260507171540 17 277 3.2 24.1 0.00 15.06 15.04 52 1015.4
20260507171509 18 302 4.8 24.1 0.00 15.06 15.04 52 1015.4
20260507171404 18 11 6.4 24.1 0.00 15.06 15.04 50 1015.4
20260507171308 18 276 8.0 24.1 0.00 15.06 15.04 51 1015.4
20260507171224 18 250 8.0 24.1 0.00 15.06 15.04 51 1015.4
20260507171128 18 238 8.0 24.1 0.00 15.06 15.04 53 1015.4
20260507171006 18 282 9.7 24.1 0.00 15.06 15.04 52 1015.5
20260507170921 17 252 9.7 24.1 0.00 15.06 15.04 52 1015.6
20260507170825 17 203 8.0 24.1 0.00 15.06 15.04 54 1015.6
20260507170719 17 328 6.4 20.9 0.00 15.06 15.04 55 1015.6
20260507170624 17 259 8.0 20.9 0.00 15.06 15.04 54 1015.6
20260507170518 17 243 9.7 20.9 0.00 15.06 15.04 54 1015.6
20260507170413 17 270 8.0 20.9 0.00 15.06 15.04 54 1015.6
20260507170322 17 231 8.0 19.3 0.00 15.06 15.04 54 1015.7
20260507170216 17 277 6.4 19.3 0.00 15.06 15.04 54 1015.8
20260507170132 16 304 4.8 19.3 0.00 15.06 15.04 56 1015.8
20260507170051 16 167 4.8 19.3 0.00 15.06 15.04 54 1015.8
20260507170011 16 162 4.8 19.3 0.00 15.06 15.04 54 1015.8
20260507165904 16 265 8.0 22.5 0.00 15.06 15.04 54 1015.9
20260507165808 16 193 8.0 22.5 0.00 15.06 15.04 55 1015.9
20260507165723 16 207 8.0 22.5 0.00 15.06 15.04 54 1015.9
20260507165631 16 179 6.4 22.5 0.00 15.06 15.04 54 1015.8
20260507165506 16 160 6.4 22.5 0.00 15.06 15.04 54 1015.8
20260507165421 16 183 6.4 22.5 0.00 15.06 15.04 54 1015.9
20260507165325 16 237 4.8 22.5 0.00 15.06 15.04 55 1015.9
20260507165219 16 247 9.7 22.5 1.19 15.06 15.04 55 1015.9
20260507165143 16 241 6.4 22.5 1.19 15.06 15.04 54 1016.0
20260507165036 16 256 1.6 16.1 2.11 15.06 15.04 55 1015.9
20260507164919 17 250 3.2 16.1 2.16 15.06 15.04 54 1015.9
20260507164818 17 280 6.4 16.1 2.82 15.06 15.04 53 1016.0
20260507164713 17 293 6.4 17.7 3.30 15.06 15.04 53 1015.9
20260507164617 17 292 8.0 17.7 4.70 15.06 15.04 53 1015.9
20260507164553 17 257 6.4 17.7 4.70 15.06 15.04 53 1015.9
20260507164512 17 292 8.0 17.7 4.70 15.06 15.04 53 1015.9
20260507164407 17 256 6.4 17.7 4.70 15.06 15.04 55 1015.9
20260507164311 17 226 6.4 17.7 5.16 15.06 15.04 55 1015.9
20260507164226 17 195 8.0 17.7 5.16 15.06 15.04 55 1015.9
20260507164113 17 194 4.8 17.7 5.18 15.06 15.04 54 1015.9
20260507164028 17 285 6.4 17.7 5.21 15.06 15.04 55 1015.9
20260507163911 17 195 8.0 17.7 5.21 15.06 15.04 56 1016.0
20260507163806 16 148 4.8 14.5 5.21 15.06 15.04 56 1016.0
20260507163730 16 285 6.4 14.5 5.21 15.06 15.04 56 1016.0
20260507163625 16 290 9.7 16.1 5.21 15.06 15.04 54 1016.0
20260507163528 16 223 8.0 16.1 5.21 15.06 15.04 55 1016.0
20260507163407 16 110 4.8 16.1 5.26 15.06 15.04 56 1016.0
20260507163321 16 260 6.4 16.1 5.26 15.06 15.04 55 1016.1
20260507163225 16 226 6.4 16.1 5.99 15.06 15.04 55 1016.1
20260507163120 16 277 6.4 16.1 6.05 15.06 15.04 56 1016.1
20260507163040 16 169 4.8 16.1 6.05 15.06 15.04 56 1016.1
20260507163016 16 333 6.4 16.1 6.05 15.06 15.04 55 1016.1
20260507162917 16 195 8.0 16.1 6.05 15.06 15.04 55 1016.1
20260507162810 16 306 8.0 16.1 6.05 15.06 15.04 55 1016.1
20260507162714 16 243 6.4 19.3 6.10 15.06 15.04 54 1016.1
20260507162613 16 223 6.4 19.3 6.10 15.06 15.04 54 1016.2
20260507162507 16 228 6.4 20.9 6.10 15.06 15.04 53 1016.2
20260507162412 16 292 9.7 20.9 6.10 15.06 15.04 54 1016.1
20260507162307 16 272 8.0 20.9 6.10 15.06 15.04 54 1016.2
20260507162231 16 270 8.0 20.9 6.10 15.06 15.04 55 1016.2
20260507162126 16 310 6.4 20.9 6.10 15.06 15.04 55 1016.1
20260507162005 16 345 8.0 20.9 6.10 15.06 15.04 55 1016.2
20260507161928 16 285 9.7 20.9 6.10 15.06 15.04 53 1016.2
20260507161823 16 266 9.7 20.9 6.10 15.06 15.04 53 1016.3
20260507161718 17 240 11.3 20.9 6.10 15.06 15.04 53 1016.1
20260507161625 16 236 8.0 17.7 6.10 15.06 15.04 53 1016.1
20260507161613 17 294 9.7 17.7 6.10 15.06 15.04 53 1016.1
20260507161517 17 277 6.4 24.1 6.10 15.06 15.04 54 1016.1
20260507161412 17 324 6.4 24.1 6.10 15.06 15.04 55 1016.1
20260507161321 17 314 8.0 24.1 6.10 15.06 15.04 55 1016.1
20260507161214 16 187 4.8 24.1 6.10 15.06 15.04 55 1016.1
20260507161108 16 269 4.8 24.1 6.10 15.06 15.04 55 1016.0
20260507161033 16 302 6.4 24.1 6.10 15.06 15.04 55 1016.0
20260507160905 16 240 6.4 24.1 6.10 15.06 15.04 54 1016.1
20260507160829 16 127 9.7 24.1 6.10 15.06 15.04 54 1016.1
20260507160704 16 311 12.9 24.1 6.10 15.06 15.04 55 1016.1
20260507160619 16 278 8.0 24.1 6.10 15.06 15.04 55 1016.1
20260507160508 16 269 3.2 24.1 6.10 15.06 15.04 56 1016.1
20260507160422 16 260 6.4 24.1 6.10 15.06 15.04 56 1016.1
20260507160346 16 181 8.0 24.1 6.10 15.06 15.04 55 1016.1
20260507160248 16 233 6.4 24.1 6.10 15.06 15.04 56 1016.1
20260507160132 16 273 4.8 24.1 6.10 15.06 15.04 54 1016.1
20260507160032 16 313 6.4 24.1 6.10 15.06 15.04 54 1016.1
20260507160012 16 294 8.0 24.1 6.10 15.06 15.04 54 1016.1
20260507155914 16 252 9.7 24.1 6.10 15.39 15.04 54 1016.1
20260507155814 16 37 9.7 22.5 6.10 15.39 15.04 53 1016.2
20260507155738 16 269 11.3 22.5 6.10 15.39 15.04 53 1016.1
20260507155632 16 257 11.3 22.5 6.10 15.39 15.04 53 1016.2
20260507155514 16 281 8.0 20.9 6.10 15.39 15.04 54 1016.1
20260507155409 16 227 8.0 20.9 6.10 15.39 15.04 54 1016.2
20260507155333 16 180 9.7 20.9 5.84 15.37 15.01 53 1016.1
20260507155206 16 122 11.3 20.9 4.65 15.24 14.94 53 1016.2
20260507155130 16 260 9.7 20.9 4.50 15.24 14.88 54 1016.2
20260507155004 16 295 6.4 17.7 3.99 15.19 14.83 56 1016.2
20260507154912 16 347 3.2 16.1 3.94 15.16 14.83 55 1016.2
20260507154807 16 218 1.6 16.1 3.28 15.11 14.76 55 1016.2
20260507154732 16 255 4.8 16.1 2.06 14.99 14.63 55 1016.2
20260507154637 16 96 3.2 16.1 1.40 14.91 14.58 55 1016.2
20260507154624 16 288 4.8 16.1 1.40 14.91 14.58 55 1016.2
20260507154528 16 216 6.4 16.1 1.40 14.91 14.58 54 1016.3
20260507154422 16 263 6.4 16.1 1.40 14.91 14.58 55 1016.3
20260507154317 16 293 4.8 16.1 0.94 14.88 14.53 56 1016.3
20260507154206 16 240 6.4 22.5 0.94 14.88 14.53 55 1016.2
20260507154119 16 233 6.4 22.5 0.91 14.88 14.53 55 1016.3
20260507154024 16 229 6.4 22.5 0.89 14.86 14.53 56 1016.3
20260507153917 16 214 8.0 22.5 0.89 14.86 14.53 56 1016.3
20260507153811 16 267 6.4 22.5 0.89 14.86 14.53 56 1016.3
20260507153714 16 300 6.4 22.5 0.89 14.86 14.53 56 1016.4
20260507153638 16 233 8.0 22.5 0.89 14.86 14.53 56 1016.4
20260507153511 16 245 9.7 22.5 0.89 14.86 14.53 56 1016.4
20260507153440 16 298 8.0 22.5 0.41 14.83 14.48 55 1016.3
20260507153313 16 205 6.4 22.5 0.10 14.78 14.45 56 1016.3
20260507153216 16 270 6.4 22.5 0.08 14.78 14.45 56 1016.4
20260507153122 15 276 8.0 22.5 0.05 14.78 14.43 55 1016.4
20260507153111 16 257 9.7 22.5 0.05 14.78 14.43 55 1016.3
20260507153017 16 298 11.3 22.5 0.05 14.78 14.43 55 1016.4
20260507152911 16 281 9.7 22.5 0.05 14.78 14.43 55 1016.5
20260507152805 16 273 6.4 19.3 0.05 14.78 14.43 56 1016.4
20260507152713 16 262 3.2 19.3 0.00 14.78 14.43 55 1016.4
20260507152607 16 303 1.6 19.3 0.05 14.78 14.43 56 1016.5
20260507152532 16 280 4.8 19.3 0.05 14.78 14.43 55 1016.4
20260507152405 16 279 8.0 19.3 0.05 14.78 14.43 55 1016.5
20260507152329 16 286 9.7 19.3 0.05 14.78 14.43 55 1016.5
20260507152204 16 233 8.0 19.3 0.05 14.78 14.43 55 1016.6
20260507152119 16 271 6.4 19.3 0.05 14.78 14.43 57 1016.6
20260507152023 16 153 4.8 16.1 0.05 14.78 14.43 56 1016.6
20260507151922 16 137 4.8 16.1 0.05 14.78 14.43 57 1016.6
20260507151817 16 236 3.2 16.1 0.05 14.78 14.43 58 1016.5
20260507151722 16 70 3.2 16.1 0.05 14.78 14.43 58 1016.6
20260507151650 15 243 3.2 16.1 0.05 14.78 14.43 58 1016.6
20260507151636 16 309 3.2 16.1 0.05 14.78 14.43 57 1016.5
20260507151519 16 174 3.2 22.5 0.05 14.78 14.43 58 1016.6
20260507151434 15 270 3.2 22.5 0.05 14.78 14.43 58 1016.6
20260507151317 15 248 4.8 22.5 0.05 14.78 14.43 58 1016.7
20260507151216 15 261 3.2 22.5 0.05 14.78 14.43 57 1016.6
20260507151111 15 210 1.6 22.5 0.05 14.78 14.43 58 1016.6
20260507151034 15 236 3.2 22.5 0.05 14.78 14.43 57 1016.7
20260507150937 15 68 6.4 22.5 0.05 14.78 14.43 58 1016.7
20260507150811 15 283 11.3 22.5 0.05 14.78 14.43 56 1016.6
20260507150705 15 285 12.9 22.5 0.05 14.78 14.43 55 1016.7
20260507150609 15 290 8.0 20.9 0.05 14.78 14.43 56 1016.8
20260507150504 15 245 8.0 16.1 0.05 14.78 14.43 58 1016.7
20260507150432 15 274 8.0 16.1 0.05 14.78 14.43 58 1016.7
20260507150307 15 266 6.4 16.1 0.05 14.78 14.43 57 1016.7
20260507150222 15 293 3.2 16.1 0.05 14.78 14.43 58 1016.7
20260507150157 15 305 4.8 16.1 0.05 14.78 14.43 58 1016.7
20260507150024 15 273 4.8 16.1 0.05 14.78 14.43 57 1016.7
20260507145916 15 277 3.2 16.1 0.05 18.06 14.43 58 1016.7
20260507145810 15 291 3.2 20.9 0.05 18.06 14.43 59 1016.7
20260507145718 15 214 0.0 20.9 0.05 18.06 14.43 58 1016.6
20260507145633 15 285 0.0 20.9 0.05 18.06 14.43 59 1016.6
20260507145536 15 288 3.2 20.9 0.05 18.06 14.43 59 1016.6
20260507145439 15 223 3.2 20.9 0.05 18.06 14.43 59 1016.7
20260507145333 15 246 4.8 20.9 0.05 18.06 14.43 58 1016.7
20260507145214 15 274 6.4 20.9 0.05 18.06 14.43 58 1016.8
20260507145109 15 279 8.0 20.9 0.05 18.06 14.43 58 1016.6
20260507145013 15 234 6.4 20.9 0.05 18.06 14.43 58 1016.7
20260507144908 15 257 6.4 16.1 0.05 18.06 14.43 59 1016.7
20260507144807 15 152 8.0 16.1 0.05 18.06 14.43 59 1016.7
20260507144711 15 134 4.8 16.1 0.05 18.06 14.43 59 1016.7
20260507144649 15 211 3.2 16.1 0.05 18.06 14.43 59 1016.7
20260507144604 15 212 1.6 16.1 0.05 18.06 14.43 60 1016.7
20260507144528 15 259 4.8 16.1 0.05 18.06 14.43 60 1016.7
20260507144452 15 223 4.8 17.7 0.05 18.06 14.43 60 1016.7
20260507144306 15 322 1.6 17.7 0.05 18.06 14.43 60 1016.7
20260507144220 15 269 4.8 17.7 0.05 18.06 14.43 60 1016.7
20260507144124 15 283 4.8 17.7 0.05 18.06 14.43 60 1016.7
20260507144039 15 148 3.2 17.7 0.05 18.06 14.43 60 1016.7
20260507143926 15 1 0.0 17.7 0.05 18.06 14.43 62 1016.7
20260507143820 15 276 0.0 17.7 0.05 18.06 14.43 61 1016.7
20260507143722 15 299 3.2 17.7 0.05 18.06 14.43 61 1016.7
20260507143617 15 122 4.8 17.7 0.05 18.06 14.43 61 1016.7
20260507143521 15 231 3.2 17.7 0.05 18.06 14.43 60 1016.7
20260507143416 15 211 1.6 17.7 0.05 18.06 14.43 61 1016.7
20260507143311 15 203 1.6 17.7 0.05 18.06 14.43 62 1016.7
20260507143234 15 285 0.0 17.7 0.05 18.06 14.43 63 1016.7
20260507143134 15 98 0.0 17.7 0.05 18.06 14.43 62 1016.7
20260507143112 15 160 1.6 17.7 0.05 18.06 14.43 62 1016.7
20260507143017 15 105 4.8 17.7 0.05 18.06 14.43 62 1016.7
20260507142910 15 231 4.8 17.7 0.05 18.06 14.43 62 1016.6
20260507142805 15 162 1.6 9.7 0.05 18.06 14.43 62 1016.7
20260507142709 15 214 3.2 9.7 0.13 18.06 14.43 63 1016.7
20260507142604 15 271 1.6 9.7 0.08 18.06 14.43 63 1016.6
20260507142528 15 295 0.0 9.7 0.08 18.06 14.43 64 1016.6
20260507142426 15 178 0.0 14.5 0.08 18.06 14.43 65 1016.7
20260507142350 15 240 0.0 14.5 0.33 18.06 14.43 65 1016.7
20260507142224 14 234 1.6 14.5 0.33 18.06 14.43 65 1016.6
20260507142148 14 347 1.6 14.5 0.33 18.06 14.43 64 1016.7
20260507142021 14 255 1.6 14.5 0.84 18.06 14.43 65 1016.7
20260507141916 14 144 1.6 14.5 1.40 18.06 14.43 66 1016.7
20260507141820 14 32 3.2 14.5 1.60 18.06 14.43 65 1016.7
20260507141719 14 295 6.4 14.5 1.75 18.06 14.43 64 1016.7
20260507141637 13 277 4.8 14.5 1.75 18.06 14.43 64 1016.7
20260507141614 14 210 3.2 14.5 1.93 18.06 14.43 64 1016.7
20260507141518 14 275 1.6 11.3 2.67 18.06 14.43 64 1016.8
20260507141413 14 155 3.2 11.3 3.17 18.06 14.43 65 1016.8
20260507141308 14 277 1.6 11.3 3.81 18.06 14.43 64 1016.8
20260507141212 14 309 3.2 11.3 4.06 18.06 14.43 64 1016.9
20260507141106 14 224 3.2 11.3 4.60 18.06 14.43 64 1016.9
20260507141007 14 214 3.2 11.3 4.60 18.06 14.43 64 1016.9
20260507140930 14 231 3.2 11.3 4.60 18.06 14.43 64 1016.9
20260507140854 14 177 1.6 11.3 5.74 18.06 14.43 65 1016.9
20260507140748 14 162 0.0 9.7 6.22 18.06 14.43 65 1016.9
20260507140515 14 231 1.6 9.7 8.36 18.06 14.43 65 1016.9
20260507140420 14 124 3.2 9.7 8.66 18.06 14.43 66 1016.9
20260507140314 14 218 3.2 9.7 8.66 18.06 14.43 65 1016.9
20260507140213 14 240 0.0 6.4 8.86 18.06 14.43 66 1016.9
20260507140128 14 292 0.0 6.4 8.86 18.06 14.43 66 1016.9
20260507140044 13 149 0.0 6.4 9.19 18.06 14.43 67 1016.9
20260507140006 13 171 0.0 6.4 10.11 18.06 14.43 69 1016.9
20260507135931 13 217 0.0 0.0 10.11 18.06 14.43 69 1016.9
20260507135805 13 305 0.0 0.0 11.43 20.60 14.43 68 1016.9
20260507135720 13 181 0.0 0.0 12.17 20.60 14.43 69 1016.9
20260507135624 13 115 0.0 0.0 12.17 20.60 14.43 69 1016.9
20260507135523 13 224 0.0 0.0 12.78 20.60 14.43 69 1016.9
20260507135417 13 280 0.0 0.0 14.17 20.60 14.43 70 1017.0
20260507135321 13 171 0.0 0.0 14.17 20.60 14.43 70 1016.9
20260507135236 13 227 0.0 0.0 15.67 20.60 14.43 71 1016.9
20260507135119 13 137 0.0 0.0 15.77 20.60 14.43 71 1016.9
20260507135013 12 143 0.0 0.0 16.71 20.60 14.43 71 1016.9
20260507134908 12 228 0.0 3.2 17.68 20.60 14.43 71 1016.9
20260507134817 12 231 0.0 3.2 17.96 20.60 14.43 71 1016.8
20260507134712 12 224 0.0 3.2 18.62 20.60 14.43 72 1016.8
20260507134623 12 135 0.0 3.2 18.62 20.60 14.43 72 1016.8
20260507134607 12 213 0.0 3.2 19.10 20.60 14.43 72 1016.8
20260507134530 12 204 0.0 3.2 19.91 20.60 14.43 71 1016.9
20260507134404 12 244 0.0 3.2 20.60 20.60 14.43 71 1016.9
20260507134308 12 266 0.0 3.2 21.26 20.60 14.43 72 1016.9
20260507134203 12 197 0.0 3.2 21.95 20.60 14.43 72 1016.9
20260507134127 12 240 0.0 3.2 21.95 20.60 14.43 72 1016.9
20260507134005 12 217 0.0 0.0 24.26 20.60 14.43 72 1017.0
20260507133921 12 216 0.0 0.0 2.54 20.60 14.43 73 1017.0
20260507133825 12 153 0.0 0.0 2.54 20.60 14.43 74 1017.0
20260507133720 12 267 0.0 0.0 2.67 20.60 14.43 74 1016.9
20260507133614 11 165 0.0 0.0 2.79 20.60 14.43 73 1017.0
20260507133519 11 255 0.0 0.0 2.84 20.60 14.43 74 1017.0
20260507133417 11 256 0.0 0.0 2.87 20.60 14.43 74 1016.9
20260507133312 11 256 0.0 0.0 3.07 20.60 14.43 73 1016.9
20260507133217 11 281 0.0 0.0 3.25 20.60 14.43 73 1016.9
20260507133111 11 295 0.0 0.0 3.38 20.60 14.43 72 1016.9
20260507133030 11 214 0.0 0.0 3.38 20.60 14.43 72 1016.9
20260507133009 11 256 0.0 0.0 3.56 20.60 14.43 74 1016.9
20260507132911 11 164 0.0 0.0 3.66 20.60 14.43 73 1016.9
20260507132807 11 254 0.0 0.0 3.81 20.60 14.43 74 1016.9
20260507132705 11 271 0.0 0.0 3.84 20.60 14.43 74 1016.9
20260507132609 11 243 0.0 0.0 3.86 20.60 14.43 74 1016.9
20260507132504 11 243 0.0 0.0 3.89 20.60 14.43 74 1016.9
20260507132428 11 124 0.0 0.0 3.86 20.57 14.40 74 1016.9
20260507132343 11 268 0.0 0.0 3.99 20.57 14.40 74 1017.0
20260507132226 11 145 0.0 0.0 4.06 20.57 14.40 75 1017.0
20260507132120 11 172 0.0 0.0 4.17 20.52 14.35 75 1017.0
20260507132019 11 259 0.0 0.0 4.29 20.50 14.33 75 1017.0
20260507131923 11 254 0.0 0.0 4.24 20.47 14.30 75 1017.0
20260507131838 11 281 0.0 0.0 4.29 20.45 14.27 75 1016.9
20260507131720 10 123 0.0 0.0 4.27 20.42 14.25 76 1016.9
20260507131615 10 185 0.0 0.0 4.27 20.42 14.22 76 1017.0
20260507131543 10 294 0.0 0.0 4.19 20.35 14.17 75 1017.0
20260507131510 10 306 0.0 0.0 4.19 20.35 14.17 75 1017.0
20260507131414 10 296 0.0 0.0 4.19 20.29 14.12 75 1017.0
20260507131313 10 165 0.0 0.0 4.11 20.22 14.05 75 1017.0
20260507131208 10 156 0.0 0.0 4.09 20.19 14.02 75 1017.0
20260507131132 10 254 0.0 0.0 4.06 20.14 13.97 75 1017.0
20260507131006 10 78 0.0 0.0 4.01 20.12 13.92 76 1017.1
20260507130911 10 215 0.0 0.0 3.99 19.99 13.82 75 1017.1
20260507130825 10 237 0.0 0.0 4.01 19.94 13.77 76 1017.1
20260507130708 10 162 0.0 0.0 4.04 19.89 13.72 76 1017.1
20260507130603 10 141 0.0 1.6 3.94 19.79 13.67 76 1017.2
20260507130531 10 211 0.0 1.6 3.91 19.76 13.59 77 1017.2
20260507130406 10 202 0.0 1.6 3.89 19.74 13.56 77 1017.2
20260507130322 10 175 0.0 1.6 3.89 19.74 13.56 77 1017.2
20260507130226 10 225 0.0 1.6 3.86 19.71 13.54 77 1017.2
20260507130131 10 203 0.0 1.6 3.84 19.68 13.51 77 1017.2
20260507130022 9 158 0.0 1.6 3.73 19.58 13.41 78 1017.2
20260507130011 10 153 0.0 1.6 3.73 19.58 13.41 78 1017.2
20260507125913 10 123 0.0 1.6 3.66 24.99 13.34 77 1017.3
20260507125812 9 123 0.0 1.6 3.61 24.94 13.28 77 1017.2
20260507125706 9 185 0.0 0.0 3.53 24.87 13.21 77 1017.2
20260507125630 9 231 0.0 0.0 3.53 24.79 13.13 78 1017.3
20260507125504 9 147 0.0 0.0 3.43 24.69 13.03 78 1017.3
20260507125408 9 199 0.0 0.0 3.51 24.64 12.98 78 1017.3
20260507125306 9 207 0.0 0.0 3.48 24.61 12.95 78 1017.3
20260507125227 9 168 0.0 0.0 3.43 24.56 12.90 79 1017.3
20260507125126 8 167 0.0 0.0 3.53 24.46 12.80 79 1017.3
20260507125011 8 166 0.0 0.0 3.61 24.41 12.75 79 1017.3
20260507124904 8 214 0.0 0.0 3.63 24.31 12.65 78 1017.4
20260507124829 8 206 0.0 0.0 3.63 24.28 12.62 78 1017.4
20260507124721 8 167 0.0 0.0 3.58 24.23 12.57 78 1017.3
20260507124646 8 268 0.0 0.0 3.53 24.18 12.52 79 1017.3
20260507124635 8 300 0.0 0.0 3.61 24.16 12.52 79 1017.3
20260507124519 8 271 0.0 0.0 3.63 24.10 12.45 79 1017.3
20260507124412 8 274 0.0 0.0 3.63 24.03 12.37 79 1017.3
20260507124320 8 160 0.0 0.0 3.61 23.95 12.29 79 1017.2
20260507124215 8 163 0.0 1.6 3.58 23.90 12.24 79 1017.2
20260507124110 8 293 0.0 1.6 3.56 23.77 12.12 79 1017.2
20260507124005 8 166 0.0 1.6 3.48 23.62 12.01 79 1017.2
20260507123909 8 292 0.0 1.6 3.38 23.52 11.86 79 1017.1
20260507123804 8 154 0.0 1.6 3.33 23.44 11.79 80 1017.2
20260507123728 8 143 0.0 1.6 3.30 23.42 11.76 80 1017.2
20260507123628 8 181 0.0 1.6 3.25 23.27 11.61 80 1017.1
20260507123551 8 161 0.0 1.6 3.20 23.22 11.56 80 1017.2
20260507123405 8 206 0.0 1.6 3.28 23.22 11.56 80 1017.2
20260507123319 8 187 0.0 1.6 3.12 23.01 11.35 80 1017.2
20260507123223 8 146 0.0 0.0 2.95 22.81 11.28 81 1017.2
20260507123118 8 181 0.0 0.0 3.05 22.71 11.05 81 1017.2
20260507123028 7 174 0.0 0.0 3.00 22.63 10.97 82 1017.2
20260507123015 7 139 0.0 0.0 3.02 22.53 10.87 82 1017.2
20260507122920 7 158 0.0 6.4 2.97 22.43 10.77 82 1017.2
20260507122835 7 151 0.0 6.4 2.77 22.25 10.59 82 1017.2
20260507122715 7 151 0.0 6.4 2.74 22.23 10.57 82 1017.2
20260507122620 7 158 0.0 6.4 2.74 22.20 10.54 82 1017.2
20260507122514 7 159 0.0 6.4 2.77 22.20 10.54 82 1017.2
20260507122428 7 152 0.0 6.4 2.67 22.05 10.39 82 1017.2
20260507122310 7 145 0.0 6.4 2.67 21.97 10.31 82 1017.2
20260507122205 7 167 1.6 6.4 2.57 21.89 10.24 82 1017.2
20260507122104 7 153 1.6 6.4 24.77 21.74 10.08 83 1017.2
20260507122008 7 162 0.0 3.2 24.43 21.69 10.03 83 1017.2
20260507121923 7 207 0.0 3.2 24.41 21.69 10.03 83 1017.2
20260507121827 7 153 0.0 3.2 24.33 21.64 9.98 83 1017.2
20260507121722 7 138 0.0 3.2 24.28 21.62 9.98 83 1017.2
20260507121631 6 188 0.0 3.2 24.28 21.62 9.96 84 1017.2
20260507121617 7 149 0.0 3.2 24.36 21.62 9.96 84 1017.2
20260507121520 7 165 0.0 3.2 24.33 21.62 9.96 84 1017.3
20260507121439 7 172 0.0 3.2 23.90 21.59 9.93 84 1017.3
20260507121322 7 156 0.0 3.2 23.90 21.59 9.93 84 1017.3
20260507121217 6 155 0.0 3.2 23.85 21.56 9.91 84 1017.3
20260507121111 6 170 0.0 0.0 24.10 21.56 9.91 85 1017.3
20260507121016 6 159 0.0 0.0 2.59 21.56 9.91 85 1017.3
20260507120910 6 166 0.0 0.0 2.59 21.46 9.80 85 1017.3
20260507120806 6 138 0.0 0.0 2.67 21.39 9.73 86 1017.3
20260507120714 6 162 0.0 0.0 2.74 21.34 9.68 86 1017.2
20260507120629 6 152 0.0 0.0 2.74 21.34 9.68 86 1017.2
20260507120512 6 140 0.0 0.0 2.74 21.34 9.68 86 1017.2
20260507120406 6 163 0.0 0.0 2.74 21.34 9.68 86 1017.2
20260507120331 6 163 0.0 0.0 2.74 21.34 9.68 86 1017.2
20260507120205 6 173 0.0 0.0 2.77 21.34 9.68 87 1017.2
20260507120141 6 176 0.0 0.0 2.77 21.34 9.68 87 1017.2
20260507120107 5 162 0.0 0.0 2.90 21.34 9.68 87 1017.2
20260507120024 6 176 0.0 0.0 2.90 21.34 9.68 87 1017.2
20260507115917 6 174 0.0 0.0 3.07 25.17 9.68 87 1017.2
20260507115820 6 174 0.0 0.0 3.07 25.17 9.65 88 1017.2
20260507115734 5 158 0.0 0.0 3.07 25.17 9.65 88 1017.2
20260507115618 5 174 0.0 0.0 3.00 25.10 9.60 88 1017.2
20260507115512 5 136 0.0 0.0 2.92 25.02 9.50 88 1017.1
20260507115407 5 205 0.0 0.0 2.90 24.97 9.47 88 1017.1
20260507115316 5 150 0.0 0.0 2.95 24.97 9.47 88 1017.1
20260507115210 5 171 0.0 0.0 2.90 24.84 9.32 88 1017.1
20260507115105 5 147 0.0 0.0 2.82 24.69 9.17 88 1017.1
20260507115007 5 173 0.0 0.0 2.69 24.54 9.04 88 1017.1
20260507114931 5 168 0.0 0.0 2.64 24.49 8.99 88 1017.1
20260507114807 5 167 0.0 0.0 2.62 24.46 8.97 88 1017.1
20260507114720 5 151 0.0 0.0 2.64 24.46 8.97 88 1017.2
20260507114623 5 199 0.0 0.0 2.57 24.38 8.89 88 1017.2
20260507114601 5 158 0.0 0.0 2.54 24.31 8.79 88 1017.2
20260507114523 5 163 0.0 0.0 2.54 24.31 8.79 88 1017.2
20260507114427 5 154 0.0 0.0 24.66 24.23 8.71 88 1017.1
20260507114322 5 181 0.0 0.0 25.25 24.18 8.69 88 1017.1
20260507114217 5 176 0.0 0.0 2.79 24.16 8.64 88 1017.1
20260507114120 5 150 0.0 0.0 2.79 24.05 8.53 88 1017.1
20260507114015 5 162 0.0 0.0 2.82 23.98 8.48 88 1017.1
20260507113910 5 193 0.0 0.0 2.87 23.98 8.48 88 1017.1
20260507113817 5 158 0.0 0.0 2.95 23.93 8.43 88 1017.1
20260507113712 5 162 0.0 0.0 3.02 23.88 8.36 88 1017.1
20260507113636 5 146 0.0 0.0 3.15 23.85 8.36 88 1017.1
20260507113511 5 153 0.0 0.0 3.07 23.77 8.26 88 1017.1
20260507113405 5 139 0.0 0.0 3.12 23.75 8.26 88 1017.1
20260507113329 5 155 0.0 0.0 3.10 23.72 8.20 88 1017.1
20260507113204 5 132 0.0 0.0 3.02 23.52 8.00 87 1017.1
20260507113132 5 132 0.0 0.0 2.97 23.47 7.98 87 1017.1
20260507113103 5 154 0.0 0.0 2.90 23.39 7.87 87 1017.1
20260507113027 5 226 0.0 0.0 2.84 23.34 7.82 87 1017.1
20260507112953 5 158 0.0 3.2 2.82 23.29 7.80 87 1017.1
20260507112825 5 179 0.0 3.2 2.87 23.29 7.80 87 1017.1
20260507112720 5 156 0.0 3.2 2.92 23.29 7.80 87 1017.0
20260507112625 5 156 0.0 3.2 2.92 23.29 7.80 87 1017.0
20260507112520 5 166 0.0 3.2 2.90 23.27 7.75 87 1017.0
20260507112419 5 166 0.0 3.2 2.84 23.22 7.70 87 1016.9
20260507112322 5 166 0.0 3.2 2.79 23.16 7.65 87 1016.9
20260507112217 5 142 0.0 3.2 2.79 23.14 7.65 88 1017.0
20260507112112 5 172 0.0 3.2 2.95 23.11 7.62 87 1016.9
20260507112036 5 164 0.0 0.0 3.10 23.09 7.59 87 1017.0
20260507111911 5 161 0.0 0.0 3.10 23.04 7.54 87 1016.9
20260507111815 5 162 0.0 0.0 3.23 23.04 7.54 87 1017.0
20260507111713 5 164 0.0 0.0 3.33 23.04 7.54 87 1017.0
20260507111636 5 167 0.0 0.0 3.33 23.04 7.52 87 1017.0
20260507111601 5 167 0.0 0.0 3.33 23.04 7.52 87 1017.0
20260507111511 5 159 0.0 0.0 3.33 23.04 7.52 87 1017.0
20260507111405 5 160 0.0 0.0 3.33 23.04 7.52 87 1016.9
20260507111329 5 159 0.0 0.0 3.33 23.04 7.52 87 1016.9
20260507111203 5 158 0.0 0.0 3.33 23.04 7.52 87 1016.9
20260507111127 5 150 0.0 0.0 3.30 22.99 7.49 87 1016.9
20260507111022 5 150 0.0 0.0 3.12 22.81 7.32 87 1016.9
20260507110930 5 144 0.0 0.0 2.95 22.63 7.14 87 1016.9
20260507110804 5 163 0.0 0.0 2.79 22.48 6.99 87 1016.9
20260507110728 5 184 0.0 0.0 2.72 22.43 6.91 87 1016.9
20260507110603 5 173 0.0 0.0 2.72 22.43 6.91 87 1016.9
20260507110519 5 193 0.0 0.0 2.72 22.40 6.91 87 1016.9
20260507110423 5 162 0.0 0.0 2.72 22.40 6.91 87 1016.9
20260507110337 5 162 0.0 0.0 2.72 22.40 6.91 87 1016.9
20260507110220 5 157 0.0 0.0 2.79 22.40 6.91 87 1016.9
20260507110129 5 153 0.0 3.2 2.67 22.25 6.76 87 1016.9
20260507110021 5 160 0.0 3.2 2.59 22.10 6.60 87 1016.9
20260507110008 5 160 0.0 3.2 2.72 22.10 6.60 87 1016.9
20260507105912 5 170 0.0 3.2 2.74 2.54 6.58 87 1016.9
20260507105805 5 170 0.0 3.2 2.77 2.54 6.58 87 1016.9
20260507105729 5 172 0.0 3.2 2.77 2.54 6.58 87 1016.9
20260507105604 5 163 0.0 3.2 2.92 2.54 6.58 87 1016.9
20260507105503 5 162 0.0 3.2 2.92 2.54 6.58 87 1016.9
20260507105405 5 162 0.0 3.2 3.07 2.54 6.58 87 1016.9
20260507105320 5 163 0.0 3.2 3.07 2.54 6.50 87 1016.9
20260507105203 5 210 0.0 0.0 2.97 25.30 6.40 87 1016.9
20260507105128 5 170 0.0 0.0 2.92 25.22 6.35 87 1016.9
20260507105020 5 170 0.0 0.0 2.90 25.22 6.35 87 1016.9
20260507104915 5 155 0.0 0.0 2.90 25.22 6.35 87 1016.9
20260507104840 5 169 0.0 0.0 3.00 25.22 6.35 87 1016.9
20260507104713 5 170 0.0 0.0 3.02 25.15 6.27 87 1016.9
20260507104622 5 171 0.0 0.0 3.02 25.12 6.25 87 1016.9
20260507104542 5 158 0.0 0.0 3.20 25.12 6.25 87 1016.9
20260507104516 5 158 0.0 0.0 3.20 25.12 6.25 87 1016.9
20260507104420 5 158 0.0 0.0 3.12 25.02 6.15 87 1016.9
20260507104315 5 158 0.0 0.0 3.05 24.87 5.99 87 1016.9
20260507104210 5 158 0.0 0.0 2.95 24.71 5.84 87 1016.9
20260507104105 5 158 0.0 0.0 2.95 24.61 5.74 87 1016.9
20260507104009 5 164 0.0 0.0 2.90 24.54 5.64 87 1016.9
20260507103907 5 146 0.0 0.0 2.92 24.41 5.54 87 1016.9
20260507103831 5 139 0.0 0.0 2.84 24.33 5.46 87 1016.9
20260507103705 5 136 0.0 0.0 2.82 24.16 5.28 87 1016.9
20260507103620 5 135 0.0 0.0 2.77 24.08 5.21 87 1016.9
20260507103523 5 135 0.0 0.0 2.74 24.05 5.18 87 1016.9
20260507103416 5 134 0.0 0.0 2.79 23.98 5.11 87 1016.9
20260507103320 5 138 0.0 0.0 2.84 23.98 5.11 87 1016.9
20260507103219 5 147 0.0 0.0 2.79 23.85 4.98 87 1016.9
20260507103125 5 155 0.0 0.0 2.79 23.85 4.98 87 1016.9
20260507103113 5 155 0.0 0.0 2.79 23.85 4.98 87 1016.9
20260507103017 5 177 0.0 0.0 2.77 23.83 4.95 87 1016.9
20260507102940 5 177 0.0 0.0 2.77 23.80 4.93 86 1016.9
20260507102814 5 146 0.0 0.0 2.87 23.77 4.90 86 1017.0
20260507102709 5 146 0.0 0.0 2.90 23.75 4.85 86 1016.9
20260507102613 5 132 0.0 0.0 2.90 23.72 4.85 86 1016.9
20260507102508 5 132 0.0 0.0 2.92 23.72 4.85 86 1016.9
20260507102417 5 132 0.0 0.0 2.97 23.72 4.85 86 1016.9
20260507102311 5 120 0.0 0.0 3.05 23.72 4.85 86 1017.0
20260507102206 5 120 0.0 0.0 3.12 23.62 4.75 86 1017.0
20260507102130 5 120 0.0 0.0 3.02 23.52 4.65 86 1017.0
20260507102025 5 169 0.0 0.0 3.05 23.32 4.45 86 1016.9
20260507101928 5 169 0.0 0.0 3.07 23.32 4.45 86 1016.9
20260507101822 5 154 0.0 1.6 2.92 23.16 4.29 87 1016.9
20260507101711 5 153 0.0 4.8 2.84 23.06 4.19 87 1016.9
20260507101653 5 153 0.0 4.8 2.84 23.06 4.19 87 1016.9
20260507101624 5 158 0.0 4.8 2.84 23.06 4.19 87 1016.9
20260507101508 5 158 0.0 4.8 2.82 23.06 4.19 87 1016.9
20260507101421 5 167 0.0 4.8 2.82 23.06 4.19 87 1016.9
20260507101316 5 172 0.0 4.8 2.82 23.06 4.19 87 1016.9
20260507101220 5 172 0.0 4.8 2.82 23.06 4.19 86 1016.9
20260507101145 5 152 0.0 4.8 2.82 23.06 4.19 87 1016.9
20260507101016 5 152 0.0 4.8 2.84 23.06 4.19 87 1016.9
20260507100921 5 201 0.0 4.8 2.90 23.06 4.19 87 1016.9
20260507100816 5 160 0.0 0.0 2.90 23.06 4.19 87 1016.9
20260507100720 5 140 0.0 0.0 2.92 23.06 4.19 87 1017.0
20260507100615 5 150 0.0 0.0 2.92 23.06 4.17 87 1017.0
20260507100539 5 149 0.0 0.0 3.00 23.06 4.17 86 1017.0
20260507100412 5 149 0.0 0.0 3.02 23.06 4.17 86 1017.0
20260507100308 5 141 0.0 0.0 3.02 23.01 4.14 86 1017.0
20260507100232 5 158 0.0 0.0 3.02 23.01 4.14 86 1017.0
20260507100156 5 158 0.0 0.0 2.97 22.96 4.09 87 1017.1
20260507100122 5 158 0.0 0.0 2.90 22.86 4.06 87 1017.0
20260507100031 5 138 0.0 0.0 2.87 22.81 3.94 87 1017.0
20260507095922 5 192 0.0 0.0 2.90 22.71 3.84 87 1017.0
20260507095816 5 192 0.0 0.0 2.82 2.69 3.76 86 1017.1
20260507095720 5 192 0.0 0.0 2.79 2.69 3.71 86 1017.0
20260507095614 5 151 0.0 0.0 2.74 2.69 3.66 86 1017.0
20260507095508 5 177 0.0 0.0 2.72 2.69 3.63 86 1017.0
20260507095416 5 177 0.0 0.0 2.59 2.67 3.51 86 1017.0
20260507095312 5 198 0.0 0.0 25.25 2.67 3.43 86 1017.1
20260507095235 5 176 0.0 0.0 25.25 2.67 3.43 86 1017.0
20260507095109 5 163 0.0 0.0 25.25 2.67 3.43 86 1017.1
20260507095033 5 163 0.0 0.0 25.25 2.67 3.43 86 1017.0
20260507094906 5 158 0.0 0.0 25.25 2.67 3.43 86 1017.1
20260507094830 5 158 0.0 0.0 24.36 2.64 3.33 86 1017.1
20260507094704 5 169 0.0 0.0 23.19 2.64 3.23 87 1017.1
20260507094603 5 172 0.0 0.0 21.44 2.62 3.05 86 1017.1
20260507094528 5 149 0.0 0.0 21.31 2.62 3.02 87 1017.1
20260507094501 5 149 0.0 0.0 21.31 2.62 3.02 87 1017.1
20260507094422 5 158 0.0 0.0 21.16 2.62 3.02 87 1017.1
20260507094324 5 158 0.0 0.0 20.32 2.62 2.95 87 1017.1
20260507094219 5 158 0.0 0.0 19.86 2.62 2.90 87 1017.1
20260507094113 5 158 0.0 0.0 18.80 2.59 2.77 87 1017.1
20260507094017 5 158 0.0 0.0 18.44 2.59 2.74 87 1017.1
20260507093915 5 162 0.0 0.0 18.11 2.59 2.62 87 1017.1
20260507093810 5 168 0.0 0.0 17.04 2.57 25.12 87 1017.1
20260507093734 5 168 0.0 0.0 16.13 2.57 24.21 87 1017.1
20260507093637 5 153 0.0 0.0 16.10 2.57 24.18 87 1017.1
20260507093510 5 152 0.0 0.0 15.82 2.57 23.90 87 1017.1
20260507093405 5 157 0.0 0.0 15.01 2.54 23.09 87 1017.2
20260507093308 5 158 0.0 0.0 14.45 2.54 22.53 87 1017.2
20260507093223 5 166 0.0 0.0 13.89 2.54 21.97 87 1017.2
20260507093131 5 174 0.0 0.0 13.67 2.54 21.74 87 1017.2
20260507093107 4 174 0.0 0.0 13.64 2.54 21.72 87 1017.2
20260507093005 5 167 0.0 0.0 13.64 2.54 21.72 87 1017.2
20260507092930 5 167 0.0 0.0 13.46 2.54 21.54 87 1017.2
20260507092804 5 165 0.0 0.0 11.73 25.27 19.71 87 1017.2
20260507092719 5 176 0.0 0.0 12.19 25.27 19.71 87 1017.2
20260507092622 5 152 0.0 0.0 12.12 25.27 19.63 87 1017.2
20260507092516 5 152 0.0 0.0 13.41 25.22 19.20 87 1017.2
20260507092420 5 152 0.0 0.0 13.84 25.17 18.69 87 1017.2
20260507092319 5 150 0.0 0.0 13.28 25.10 17.93 87 1017.2
20260507092223 5 150 0.0 0.0 11.63 24.92 16.28 87 1017.2
20260507092117 5 154 0.0 0.0 10.69 24.77 14.71 87 1017.2
20260507092011 5 159 0.0 0.0 9.68 24.66 13.77 87 1017.2
20260507091915 5 159 0.0 0.0 9.68 24.66 13.64 87 1017.2
20260507091810 5 160 0.0 0.0 9.68 24.66 13.64 87 1017.3
20260507091704 5 160 0.0 0.0 9.68 24.66 13.64 87 1017.2
20260507091612 5 159 0.0 0.0 9.68 24.66 13.64 87 1017.2
20260507091552 4 160 0.0 0.0 9.68 24.66 13.64 87 1017.2
20260507091507 5 159 0.0 0.0 9.68 24.66 13.64 87 1017.2
20260507091431 5 160 0.0 0.0 9.68 24.66 13.64 87 1017.2
20260507091306 5 160 0.0 0.0 9.68 24.66 13.64 87 1017.2
20260507091221 5 159 0.0 0.0 9.68 24.66 13.64 87 1017.2
20260507091125 5 160 0.0 0.0 10.06 24.66 13.64 87 1017.2
20260507091003 5 153 0.0 0.0 10.21 24.64 13.36 87 1017.2
20260507090918 5 153 0.0 0.0 9.68 24.59 12.78 87 1017.2
20260507090823 5 151 0.0 0.0 9.68 24.59 12.78 86 1017.2
20260507090717 5 151 0.0 0.0 9.78 24.56 12.67 86 1017.2
20260507090620 5 151 0.0 0.0 9.78 24.56 12.67 86 1017.2
20260507090515 5 150 0.0 0.0 9.09 24.46 11.73 86 1017.2
20260507090409 5 150 0.0 0.0 8.81 24.43 11.48 86 1017.2
20260507090304 5 150 0.0 0.0 8.48 24.41 11.10 86 1017.2
20260507090212 5 150 0.0 0.0 8.46 24.41 11.07 86 1017.2
20260507090134 5 150 0.0 0.0 8.10 24.36 10.72 86 1017.2
20260507090120 5 150 0.0 0.0 8.10 24.36 10.72 86 1017.2
20260507090009 5 150 0.0 0.0 6.83 24.23 9.45 86 1017.2
20260507085922 5 150 0.0 0.0 6.83 24.23 9.45 86 1017.2
20260507085825 5 150 0.0 0.0 6.83 2.84 9.45 86 1017.2
20260507085720 5 150 0.0 0.0 6.53 2.84 9.14 86 1017.2
20260507085614 5 150 0.0 0.0 6.53 2.84 9.14 86 1017.3
20260507085523 5 150 0.0 0.0 6.53 2.84 9.14 86 1017.3
20260507085417 5 150 0.0 0.0 6.55 2.84 9.14 86 1017.3
20260507085312 5 150 0.0 0.0 6.55 2.84 9.14 86 1017.2
20260507085215 5 150 0.0 0.0 6.55 2.84 9.14 86 1017.2
20260507085111 5 150 0.0 0.0 6.55 2.84 9.14 86 1017.2
20260507085014 5 150 0.0 0.0 6.55 2.84 9.14 86 1017.2
20260507084909 5 150 0.0 0.0 6.55 2.84 9.14 86 1017.2
20260507084808 5 150 0.0 0.0 6.55 2.84 9.14 86 1017.2
20260507084712 5 150 0.0 0.0 6.55 2.84 9.14 86 1017.2
20260507084643 5 150 0.0 0.0 6.55 2.84 9.14 86 1017.2
20260507084607 5 150 0.0 0.0 6.55 2.84 9.14 86 1017.2
20260507084532 5 168 0.0 0.0 6.55 2.84 9.14 86 1017.2
20260507084405 5 152 0.0 0.0 6.55 2.84 9.14 86 1017.2
20260507084329 5 151 0.0 0.0 6.55 2.84 9.14 86 1017.2
20260507084223 5 151 0.0 0.0 6.55 2.84 9.14 86 1017.2
20260507084147 5 152 0.0 0.0 6.53 2.84 9.12 86 1017.2
20260507084005 5 167 0.0 0.0 6.40 2.84 8.99 85 1017.3
20260507083920 5 167 0.0 0.0 5.49 2.82 8.08 85 1017.3
20260507083824 5 161 0.0 0.0 5.49 2.82 8.08 85 1017.3
20260507083718 5 161 0.0 0.0 5.49 2.82 8.08 85 1017.3
20260507083622 5 161 0.0 0.0 5.49 2.82 8.08 85 1017.3
20260507083517 5 161 0.0 0.0 5.49 2.82 8.08 85 1017.3
20260507083412 5 161 0.0 0.0 5.49 2.82 8.08 85 1017.3
20260507083320 5 161 0.0 0.0 5.49 2.82 8.08 85 1017.2
20260507083215 5 135 0.0 0.0 5.49 2.82 8.08 85 1017.2
20260507083128 5 135 0.0 0.0 5.49 2.82 8.08 85 1017.2
20260507083110 5 163 0.0 0.0 5.49 2.82 8.08 85 1017.2
20260507083015 5 163 0.0 0.0 5.49 2.82 8.08 85 1017.3
20260507082909 5 174 0.0 0.0 5.49 2.82 8.08 85 1017.3
20260507082804 5 174 0.0 0.0 5.38 2.82 7.98 85 1017.3
20260507082712 5 167 0.0 0.0 4.60 2.82 7.19 85 1017.3
20260507082607 5 167 0.0 0.0 3.38 2.79 5.97 85 1017.3
20260507082531 5 167 0.0 0.0 3.20 2.79 5.79 85 1017.3
20260507082406 5 156 0.0 0.0 2.26 2.79 4.85 85 1017.3
20260507082321 5 157 0.0 0.0 2.06 2.79 4.65 84 1017.3
20260507082204 5 157 0.0 0.0 1.65 2.79 4.24 84 1017.3
20260507082119 5 157 0.0 0.0 1.42 2.79 4.01 84 1017.3
20260507082022 5 157 0.0 0.0 1.37 2.79 3.96 84 1017.3
20260507081919 5 157 0.0 0.0 1.37 2.79 3.96 84 1017.3
20260507081822 5 156 0.0 0.0 1.37 2.79 3.96 84 1017.3
20260507081716 5 157 0.0 0.0 1.37 2.79 3.96 84 1017.3
20260507081634 5 157 0.0 0.0 1.37 2.79 3.96 84 1017.3
20260507081611 5 157 0.0 0.0 1.37 2.79 3.96 84 1017.3
20260507081515 5 157 0.0 0.0 1.37 2.79 3.96 84 1017.3
20260507081410 5 156 0.0 0.0 1.37 2.79 3.96 84 1017.3
20260507081305 5 157 0.0 0.0 1.37 2.79 3.96 84 1017.3
20260507081213 5 157 0.0 0.0 0.61 2.77 3.58 83 1017.3
20260507081108 5 157 0.0 0.0 0.58 2.77 3.17 84 1017.2
20260507081003 5 156 0.0 0.0 0.51 2.77 3.10 84 1017.2
20260507080907 5 156 0.0 0.0 0.51 2.77 3.10 84 1017.2
20260507080822 5 156 0.0 0.0 0.33 2.77 2.92 84 1017.2
20260507080725 5 156 0.0 0.0 0.30 2.77 2.90 84 1017.2
20260507080604 5 164 0.0 0.0 0.05 2.77 2.90 84 1017.2
20260507080518 5 164 0.0 0.0 0.05 2.77 2.64 84 1017.2
20260507080422 5 164 0.0 0.0 0.03 2.77 2.62 84 1017.2
20260507080337 5 164 0.0 0.0 0.03 2.77 2.62 83 1017.2
20260507080220 5 179 0.0 0.0 0.03 2.77 2.62 84 1017.2
20260507080126 5 186 0.0 0.0 0.03 2.77 2.62 84 1017.2
20260507080021 5 186 0.0 0.0 0.03 2.77 2.62 84 1017.2
20260507080005 5 186 0.0 0.0 0.03 2.77 2.62 84 1017.2
20260507075907 5 150 0.0 0.0 0.03 3.20 2.62 84 1017.1
20260507075807 5 168 0.0 0.0 0.03 3.20 2.62 84 1017.2
20260507075730 5 169 0.0 0.0 0.03 3.20 2.62 84 1017.2
20260507075605 5 156 0.0 0.0 0.03 3.20 2.62 84 1017.1
20260507075520 5 155 0.0 0.0 0.00 3.20 2.59 84 1017.1
20260507075423 5 155 0.0 0.0 0.00 3.20 2.59 84 1017.1
20260507075318 5 155 0.0 0.0 0.00 3.20 2.59 84 1017.1
20260507075213 5 141 0.0 0.0 0.00 3.20 2.59 84 1017.1
20260507075122 5 141 0.0 0.0 0.00 3.20 2.59 84 1017.1
20260507075013 5 141 0.0 0.0 0.00 3.20 2.59 84 1017.1
20260507074908 5 141 0.0 0.0 0.00 3.20 2.59 84 1017.1
20260507074812 5 149 0.0 0.0 0.00 3.20 2.59 84 1017.1
20260507074707 5 149 0.0 0.0 0.00 3.20 2.59 84 1017.1
20260507074627 5 148 0.0 0.0 0.00 3.20 2.59 83 1017.1
20260507074602 6 149 0.0 0.0 0.00 3.20 2.59 83 1017.1
20260507074510 6 148 0.0 0.0 0.00 3.20 2.59 83 1017.1
20260507074424 6 159 0.0 0.0 0.00 3.20 2.59 83 1017.1
20260507074327 6 159 0.0 0.0 0.00 3.20 2.59 83 1017.1
20260507074230 6 159 0.0 0.0 0.00 3.20 2.59 83 1017.1
20260507074105 6 159 0.0 0.0 0.00 3.20 2.59 83 1017.2
20260507074021 6 159 0.0 0.0 0.00 3.20 2.59 83 1017.1
20260507073925 6 159 0.0 0.0 0.00 3.20 2.59 83 1017.1
20260507073819 6 159 0.0 0.0 0.00 3.20 2.59 83 1017.2
20260507073717 6 159 0.0 0.0 0.00 3.20 2.59 83 1017.2
20260507073622 6 159 0.0 0.0 0.00 3.20 2.59 83 1017.2
20260507073516 6 170 0.0 0.0 0.00 3.20 2.59 83 1017.3
20260507073411 6 170 0.0 0.0 0.00 3.20 2.59 82 1017.3
20260507073315 6 170 0.0 0.0 0.00 3.20 2.59 82 1017.3
20260507073210 6 179 0.0 0.0 0.00 3.20 2.59 82 1017.3
20260507073134 5 179 0.0 0.0 0.00 3.20 2.59 82 1017.3
20260507073105 6 179 0.0 0.0 0.00 3.20 2.59 82 1017.3
20260507073015 6 179 0.0 0.0 0.00 3.20 2.59 82 1017.3
20260507072908 6 165 0.0 0.0 0.00 3.20 2.59 82 1017.3
20260507072832 6 165 0.0 0.0 0.00 3.20 2.59 82 1017.3
20260507072747 6 165 0.0 0.0 0.00 3.20 2.59 82 1017.3
20260507072515 6 162 0.0 0.0 0.00 3.20 2.59 82 1017.4
20260507072420 6 174 0.0 0.0 0.00 3.20 2.59 82 1017.4
20260507072313 6 135 0.0 0.0 0.00 3.20 2.59 82 1017.3
20260507072212 6 177 0.0 0.0 0.00 3.20 2.59 82 1017.4
20260507072116 6 155 0.0 0.0 0.00 3.20 2.59 82 1017.4
20260507072011 6 155 0.0 0.0 0.00 3.20 2.59 82 1017.4
20260507071906 6 155 0.0 0.0 0.00 3.20 2.59 81 1017.5
20260507071830 6 155 0.0 0.0 0.00 3.20 2.59 81 1017.5
20260507071705 6 160 0.0 0.0 0.00 3.20 2.59 81 1017.5
20260507071633 6 160 0.0 0.0 0.00 3.20 2.59 81 1017.5
20260507071604 6 160 0.0 0.0 0.00 3.20 2.59 81 1017.6
20260507071528 6 160 0.0 0.0 0.00 3.20 2.59 81 1017.6
20260507071432 6 160 0.0 0.0 0.00 3.20 2.59 81 1017.6
20260507071326 6 160 0.0 0.0 0.00 3.20 2.59 81 1017.6
20260507071221 6 160 0.0 0.0 0.00 3.20 2.59 81 1017.7
20260507071127 6 160 0.0 0.0 0.00 3.20 2.59 81 1017.7
20260507071019 6 160 0.0 0.0 0.00 3.20 2.59 80 1017.7
20260507070933 6 165 0.0 0.0 0.00 3.20 2.59 80 1017.7
20260507070820 6 165 0.0 0.0 0.00 3.20 2.59 80 1017.7
20260507070715 6 165 0.0 0.0 0.00 3.20 2.59 80 1017.7
20260507070610 6 165 0.0 0.0 0.00 3.20 2.59 79 1017.7
20260507070514 6 134 0.0 0.0 0.00 3.20 2.59 80 1017.7
20260507070409 6 148 0.0 0.0 0.00 3.20 2.59 79 1017.7
20260507070333 6 148 0.0 0.0 0.00 3.20 2.59 79 1017.7
20260507070227 6 148 0.0 0.0 0.00 3.20 2.59 78 1017.7
20260507070141 6 148 0.0 0.0 0.00 3.20 2.59 79 1017.7
20260507070028 6 149 0.0 0.0 0.00 3.20 2.59 78 1017.7
20260507065904 6 149 0.0 0.0 0.00 3.91 2.59 78 1017.7
20260507065828 6 149 0.0 0.0 0.00 3.91 2.59 78 1017.7
20260507065731 6 149 0.0 0.0 0.00 3.91 2.59 78 1017.7
20260507065605 6 151 0.0 0.0 0.00 3.91 2.59 78 1017.7
20260507065529 6 151 0.0 0.0 0.00 3.91 2.59 78 1017.7
20260507065404 6 151 0.0 0.0 0.00 3.91 2.59 77 1017.8
20260507065319 6 151 0.0 0.0 0.00 3.91 2.59 77 1017.8
20260507065223 6 151 0.0 0.0 0.00 3.91 2.59 77 1017.8
20260507065152 6 151 0.0 0.0 0.00 3.91 2.59 77 1017.8
20260507065025 6 151 0.0 0.0 0.00 3.91 2.59 77 1017.8
20260507064920 7 151 0.0 0.0 0.00 3.91 2.59 77 1017.8
20260507064815 7 151 0.0 0.0 0.00 3.91 2.59 77 1017.9
20260507064719 7 151 0.0 0.0 0.00 3.91 2.59 77 1017.9
20260507064614 7 151 0.0 0.0 0.00 3.91 2.59 77 1017.9
20260507064524 6 151 0.0 0.0 0.00 3.91 2.59 77 1017.9
20260507064509 7 151 0.0 0.0 0.00 3.91 2.59 77 1017.9
20260507064437 7 153 0.0 0.0 0.00 3.91 2.59 77 1017.9
20260507064339 7 152 0.0 0.0 0.00 3.91 2.59 77 1017.8
20260507064243 7 152 0.0 0.0 0.00 3.91 2.59 76 1017.9
20260507064116 7 152 0.0 0.0 0.00 3.91 2.59 76 1017.9
20260507064011 7 152 0.0 0.0 0.00 3.91 2.59 76 1017.8
20260507063906 7 152 0.0 0.0 0.00 3.91 2.59 76 1017.9
20260507063810 7 153 0.0 0.0 0.00 3.91 2.59 76 1017.9
20260507063735 7 153 0.0 0.0 0.00 3.91 2.59 76 1017.9
20260507063610 7 153 0.0 0.0 0.00 3.91 2.59 76 1017.9
20260507063505 7 162 0.0 0.0 0.00 3.91 2.59 76 1017.9
20260507063429 7 162 0.0 0.0 0.00 3.91 2.59 76 1017.9
20260507063324 7 162 0.0 0.0 0.00 3.91 2.59 76 1017.9
20260507063219 7 162 0.0 0.0 0.00 3.91 2.59 76 1017.9
20260507063124 7 162 0.0 0.0 0.00 3.91 2.59 77 1017.9
20260507063104 6 162 0.0 0.0 0.00 3.91 2.59 77 1017.8
20260507063020 7 162 0.0 0.0 0.00 3.91 2.59 76 1017.9
20260507062917 7 162 0.0 0.0 0.00 3.91 2.59 77 1017.9
20260507062821 6 159 0.0 0.0 0.00 3.91 2.59 76 1017.9
20260507062716 6 158 0.0 0.0 0.00 3.91 2.59 76 1017.9
20260507062640 6 173 0.0 0.0 0.00 3.91 2.59 77 1017.9
20260507062513 6 171 0.0 0.0 0.00 3.91 2.59 77 1017.9
20260507062437 6 172 0.0 0.0 0.00 3.91 2.59 77 1017.9
20260507062311 6 172 0.0 0.0 0.00 3.91 2.59 77 1017.9
20260507062210 6 158 0.0 0.0 0.00 3.91 2.59 77 1017.9
20260507062112 6 158 0.0 0.0 0.00 3.91 2.59 77 1017.9
20260507062007 6 158 0.0 0.0 0.03 3.91 2.59 78 1017.9
20260507061911 6 158 0.0 0.0 0.03 3.91 2.59 78 1017.9
20260507061805 6 161 0.0 0.0 0.03 3.91 2.59 78 1017.9
20260507061730 6 161 0.0 0.0 0.03 3.91 2.59 78 1017.9
20260507061606 6 161 0.0 0.0 0.03 3.91 2.59 78 1018.0
20260507061547 6 161 0.0 0.0 0.03 3.91 2.59 78 1017.9
20260507061504 6 161 0.0 0.0 0.03 3.91 2.59 78 1018.0
20260507061428 6 161 0.0 0.0 0.03 3.91 2.59 78 1018.0
20260507061322 6 167 0.0 0.0 0.03 3.91 2.59 78 1018.0
20260507061226 6 167 0.0 0.0 0.03 3.91 2.59 78 1017.9
20260507061120 6 167 0.0 0.0 0.03 3.91 2.59 78 1017.9
20260507061043 6 167 0.0 0.0 0.03 3.91 2.59 78 1017.9
20260507060916 6 167 0.0 0.0 0.15 3.91 2.59 78 1017.9
20260507060821 6 167 0.0 0.0 0.15 3.91 2.59 79 1017.9
20260507060735 6 167 0.0 0.0 1.68 3.91 2.59 79 1017.9
20260507060623 6 167 0.0 0.0 1.68 3.91 2.59 79 1017.9
20260507060518 6 167 0.0 0.0 1.68 3.91 2.59 79 1017.9
20260507060413 6 159 0.0 0.0 1.83 3.91 2.59 79 1017.9
20260507060317 6 159 0.0 0.0 1.85 3.91 2.59 79 1017.9
20260507060147 6 160 0.0 0.0 1.85 3.91 2.59 79 1017.9
20260507060058 6 160 0.0 0.0 2.13 3.91 2.59 79 1017.8
20260507060007 6 160 0.0 0.0 2.59 3.91 2.59 79 1017.8
20260507055904 6 160 0.0 0.0 2.59 4.39 2.59 79 1017.9
20260507055828 6 160 0.0 0.0 2.59 4.39 2.59 79 1017.9
20260507055703 6 160 0.0 0.0 2.72 4.39 2.59 80 1017.9
20260507055619 6 160 0.0 0.0 2.82 4.39 2.59 80 1017.9
20260507055523 6 160 0.0 0.0 2.82 4.39 2.59 79 1017.9
20260507055417 6 160 0.0 0.0 2.82 4.39 2.59 80 1018.0
20260507055312 6 160 0.0 0.0 2.82 4.39 2.59 80 1018.0
20260507055221 6 160 0.0 0.0 2.82 4.39 2.59 79 1018.0
20260507055115 6 160 0.0 0.0 2.82 4.39 2.59 80 1018.0
20260507055010 6 160 0.0 0.0 2.82 4.39 2.59 80 1018.0
20260507054935 6 159 0.0 0.0 2.82 4.39 2.59 81 1018.1
20260507054837 6 175 0.0 0.0 2.82 4.39 2.59 81 1018.1
20260507054731 6 175 0.0 0.0 2.82 4.39 2.59 81 1018.1
20260507054613 6 175 0.0 0.0 2.82 4.39 2.59 81 1018.1
20260507054607 6 175 0.0 0.0 2.82 4.39 2.59 81 1018.1
20260507054508 6 175 0.0 0.0 2.82 4.39 2.59 81 1018.0
20260507054407 6 175 0.0 0.0 2.82 4.39 2.59 81 1018.1
20260507054331 6 175 0.0 0.0 2.82 4.39 2.59 82 1018.1
20260507054204 6 175 0.0 0.0 2.82 4.39 2.59 82 1018.0
20260507054128 6 175 0.0 0.0 2.82 4.39 2.59 82 1018.0
20260507054030 6 175 0.0 0.0 2.82 4.39 2.59 82 1018.1
20260507053905 6 175 0.0 0.0 2.82 4.39 2.59 82 1018.1
20260507053820 6 175 0.0 0.0 2.82 4.39 2.59 82 1018.0
20260507053723 6 175 0.0 0.0 2.82 4.39 2.59 81 1018.0
20260507053621 6 175 0.0 0.0 2.82 4.39 2.59 81 1018.0
20260507053516 6 175 0.0 0.0 2.82 4.39 2.59 81 1018.1
20260507053421 6 179 0.0 0.0 2.82 4.39 2.59 81 1018.1
20260507053315 6 179 0.0 0.0 2.82 4.39 2.59 81 1018.1
20260507053210 6 179 0.0 0.0 2.82 4.39 2.59 81 1018.0
20260507053133 6 179 0.0 0.0 2.82 4.39 2.59 81 1018.0
20260507053029 5 179 0.0 0.0 2.82 4.39 2.59 81 1017.9
20260507053010 6 179 0.0 0.0 2.82 4.39 2.59 81 1018.0
20260507052916 6 179 0.0 0.0 2.82 4.39 2.59 81 1018.0
20260507052811 6 179 0.0 0.0 2.82 4.39 2.59 81 1018.0
20260507052706 6 179 0.0 0.0 2.82 4.39 2.59 81 1018.0
20260507052609 6 179 0.0 0.0 2.82 4.39 2.59 81 1018.0
20260507052504 6 179 0.0 0.0 2.82 4.39 2.59 81 1018.0
20260507052429 6 179 0.0 0.0 2.82 4.39 2.59 81 1018.0
20260507052323 6 179 0.0 0.0 2.82 4.39 2.59 81 1018.0
20260507052230 6 179 0.0 0.0 2.82 4.39 2.59 80 1018.0
20260507052105 6 179 0.0 0.0 2.82 4.39 2.59 80 1017.9
20260507052020 6 179 0.0 0.0 2.79 4.39 2.57 80 1017.9
20260507051925 6 179 0.0 0.0 2.79 4.39 2.57 80 1017.9
20260507051819 6 179 0.0 0.0 2.79 4.39 2.57 81 1017.9
20260507051714 6 165 0.0 0.0 2.79 4.39 2.57 81 1017.9
20260507051618 6 165 0.0 0.0 2.79 4.39 2.57 81 1017.9
20260507051555 5 165 0.0 0.0 2.79 4.39 2.57 81 1017.9
20260507051537 5 165 0.0 0.0 2.79 4.39 2.57 81 1018.0
20260507051440 5 165 0.0 0.0 2.79 4.39 2.57 81 1018.0
20260507051314 5 165 0.0 0.0 2.79 4.39 2.57 81 1018.1
20260507051218 5 165 0.0 0.0 2.79 4.39 2.57 82 1018.0
20260507051113 5 167 0.0 0.0 2.79 4.39 2.57 82 1018.0
20260507051008 5 167 0.0 0.0 2.79 4.39 2.57 82 1018.0
20260507050932 5 167 0.0 0.0 2.67 4.39 2.44 82 1018.0
20260507050835 5 167 0.0 0.0 1.52 4.37 1.30 82 1018.0
20260507050713 5 167 0.0 0.0 1.14 4.37 0.91 81 1018.0
20260507050608 5 167 0.0 0.0 1.14 4.37 0.91 81 1018.0
20260507050512 5 167 0.0 0.0 1.14 4.37 0.91 81 1018.0
20260507050407 5 167 0.0 0.0 0.99 4.37 0.76 81 1018.0
20260507050331 5 167 0.0 0.0 0.99 4.37 0.76 82 1018.0
20260507050246 5 167 0.0 0.0 0.97 4.37 0.74 82 1018.0
20260507050159 5 167 0.0 0.0 0.69 4.37 0.46 82 1018.0
20260507050025 5 167 0.0 0.0 0.23 4.37 0.00 82 1018.0
20260507045926 5 214 0.0 0.0 0.23 4.37 0.00 82 1018.0
20260507045803 5 214 0.0 0.0 0.13 4.98 4.37 82 1018.0
20260507045718 5 214 0.0 0.0 0.10 4.98 4.37 81 1018.1
20260507045622 5 214 0.0 0.0 0.00 4.98 4.37 80 1018.0
20260507045517 5 214 0.0 0.0 0.00 4.98 4.37 80 1018.1
20260507045412 5 310 0.0 0.0 0.00 4.98 4.37 79 1018.0
20260507045314 5 309 0.0 0.0 0.00 4.98 4.37 79 1018.0
20260507045138 5 310 0.0 0.0 0.00 4.98 4.37 79 1018.1
20260507045011 5 310 0.0 0.0 0.00 4.98 4.37 79 1018.1
20260507044906 6 310 0.0 0.0 0.00 4.98 4.37 78 1018.0
20260507044810 6 310 0.0 0.0 0.00 4.98 4.37 78 1018.1
20260507044704 6 309 0.0 0.0 0.00 4.98 4.37 78 1018.0
20260507044628 5 310 0.0 0.0 0.00 4.98 4.37 78 1018.0
20260507044618 6 310 0.0 0.0 0.00 4.98 4.37 78 1018.0
20260507044522 6 310 0.0 0.0 0.00 4.98 4.37 78 1018.0
20260507044416 6 310 0.0 0.0 0.00 4.98 4.37 77 1018.0
20260507044305 6 310 0.0 0.0 0.00 4.98 4.37 77 1018.1
20260507044218 6 310 0.0 0.0 0.00 4.98 4.37 76 1018.0
20260507044113 6 310 0.0 0.0 0.00 4.98 4.37 76 1018.0
20260507044017 6 310 0.0 0.0 0.00 4.98 4.37 76 1018.0
20260507043911 6 309 0.0 0.0 0.00 4.98 4.37 75 1018.0
20260507043835 6 309 0.0 0.0 0.00 4.98 4.37 74 1018.0
20260507043709 6 310 0.0 0.0 0.00 4.98 4.37 73 1018.0
20260507043608 6 309 0.0 0.0 0.00 4.98 4.37 73 1018.0
20260507043511 6 310 0.0 0.0 0.00 4.98 4.37 74 1018.0
20260507043406 6 310 0.0 0.0 0.00 4.98 4.37 74 1018.0
20260507043330 6 310 0.0 0.0 0.00 4.98 4.37 74 1018.0
20260507043205 6 310 0.0 0.0 0.00 4.98 4.37 75 1017.9
20260507043135 5 310 0.0 0.0 0.00 4.98 4.37 75 1017.9
20260507043120 6 310 0.0 0.0 0.00 4.98 4.37 75 1017.9
20260507043025 6 309 0.0 0.0 0.00 4.98 4.37 75 1017.9
20260507042902 6 309 0.0 0.0 0.00 4.98 4.37 76 1017.9
20260507042818 6 310 0.0 0.0 0.00 4.98 4.37 76 1017.9
20260507042722 6 310 0.0 0.0 0.00 4.98 4.37 76 1017.9
20260507042617 6 309 0.0 0.0 0.00 4.98 4.37 77 1017.9
20260507042512 6 310 0.0 0.0 0.00 4.98 4.37 77 1018.0
20260507042415 6 310 0.0 0.0 0.00 4.98 4.37 78 1018.0
20260507042310 6 310 0.0 0.0 0.00 4.98 4.37 79 1018.0
20260507042218 6 309 0.0 0.0 0.00 4.98 4.37 79 1018.0
20260507042112 6 310 0.0 0.0 0.00 4.98 4.37 79 1018.0
20260507042008 6 309 0.0 0.0 0.00 4.98 4.37 80 1018.0
20260507041911 6 309 0.0 0.0 0.00 4.98 4.37 80 1018.0
20260507041826 6 309 0.0 0.0 0.00 4.98 4.37 80 1018.0
20260507041709 6 310 0.0 0.0 0.00 4.98 4.37 80 1018.0
20260507041642 5 310 0.0 0.0 0.00 4.98 4.37 80 1017.9
20260507041623 6 310 0.0 0.0 0.00 4.98 4.37 80 1018.0
20260507041527 6 310 0.0 0.0 0.00 4.98 4.37 79 1018.0
20260507041405 6 310 0.0 0.0 0.00 4.98 4.37 79 1018.1
20260507041309 6 310 0.0 0.0 0.00 4.98 4.37 79 1018.1
20260507041203 6 310 0.0 0.0 0.00 4.98 4.37 78 1018.2
20260507041128 6 309 0.0 0.0 0.00 4.98 4.37 78 1018.2
20260507041042 6 310 0.0 0.0 0.00 4.98 4.37 78 1018.2
20260507040925 6 310 0.0 0.0 0.00 4.98 4.37 78 1018.2
20260507040820 6 310 0.0 0.0 0.00 4.98 4.37 77 1018.2
20260507040718 6 310 0.0 0.0 0.00 4.98 4.37 76 1018.2
20260507040623 6 310 0.0 0.0 0.00 4.98 4.37 76 1018.2
20260507040518 6 310 0.0 0.0 0.00 4.98 4.37 76 1018.2
20260507040413 6 309 0.0 0.0 0.00 4.98 4.37 76 1018.2
20260507040317 6 310 0.0 0.0 0.00 4.98 4.37 75 1018.3
20260507040212 6 310 0.0 0.0 0.00 4.98 4.37 75 1018.3
20260507040127 6 310 0.0 0.0 0.00 4.98 4.37 75 1018.3
20260507040050 6 310 0.0 0.0 0.00 4.98 4.37 75 1018.3
20260507040012 6 309 0.0 0.0 0.00 4.98 4.37 74 1018.3
20260507035904 6 309 0.0 0.0 0.00 5.49 4.37 74 1018.3
20260507035808 6 310 0.0 0.0 0.00 5.49 4.37 74 1018.3
20260507035723 6 310 0.0 0.0 0.00 5.49 4.37 74 1018.3
20260507035606 6 310 0.0 0.0 0.00 5.49 4.37 74 1018.3
20260507035521 6 310 0.0 0.0 0.00 5.49 4.37 72 1018.3
20260507035426 6 310 0.0 0.0 0.00 5.49 4.37 71 1018.3
20260507035324 6 310 0.0 0.0 0.00 5.49 4.37 70 1018.3
20260507035228 6 310 0.0 0.0 0.00 5.49 4.37 69 1018.3
20260507035102 7 310 0.0 0.0 0.00 5.49 4.37 68 1018.3
20260507035017 7 310 0.0 0.0 0.00 5.49 4.37 67 1018.3
20260507034918 7 310 0.0 0.0 0.00 5.49 4.37 67 1018.3
20260507034810 7 310 0.0 0.0 0.00 5.49 4.37 67 1018.3
20260507034705 7 310 0.0 0.0 0.00 5.49 4.37 66 1018.3
20260507034614 7 310 0.0 0.0 0.00 5.49 4.37 66 1018.2
20260507034558 6 310 0.0 0.0 0.00 5.49 4.37 66 1018.2
20260507034507 7 310 0.0 0.0 0.00 5.49 4.37 64 1018.2
20260507034410 7 310 0.0 0.0 0.00 5.49 4.37 64 1018.2
20260507034305 7 310 0.0 0.0 0.00 5.49 4.37 63 1018.2
20260507034230 7 310 0.0 0.0 0.00 5.49 4.37 63 1018.2
20260507034124 7 310 0.0 0.0 0.00 5.49 4.37 63 1018.2
20260507034018 7 309 0.0 0.0 0.00 5.49 4.37 63 1018.2
20260507033913 7 310 0.0 0.0 0.00 5.49 4.37 64 1018.1
20260507033802 7 310 0.0 0.0 0.00 5.49 4.37 64 1018.1
20260507033716 7 310 0.0 0.0 0.00 5.49 4.37 65 1018.1
20260507033621 7 310 0.0 0.0 0.00 5.49 4.37 64 1018.1
20260507033514 7 310 0.0 0.0 0.00 5.49 4.37 63 1018.1
20260507033409 7 309 0.0 0.0 0.00 5.49 4.37 62 1018.1
20260507033304 7 310 0.0 0.0 0.00 5.49 4.37 62 1018.1
20260507033212 7 309 0.0 0.0 0.00 5.49 4.37 62 1018.1
20260507033107 7 310 0.0 0.0 0.00 5.49 4.37 62 1018.1
20260507033020 7 310 0.0 0.0 0.00 5.49 4.37 62 1018.1
20260507033005 7 310 0.0 0.0 0.00 5.49 4.37 62 1018.1
20260507032907 7 310 0.0 0.0 0.00 5.49 4.37 62 1018.0
20260507032802 7 310 0.0 0.0 0.00 5.49 4.37 64 1018.0
20260507032727 7 309 0.0 0.0 0.00 5.49 4.37 64 1018.0
20260507032621 7 310 0.0 0.0 0.00 5.49 4.37 65 1018.0
20260507032530 7 310 0.0 0.0 0.00 5.49 4.37 64 1018.0
20260507032425 7 310 0.0 0.0 0.00 5.49 4.37 64 1018.1
20260507032319 7 310 0.0 0.0 0.00 5.49 4.37 64 1018.1
20260507032225 7 310 0.0 0.0 0.00 5.49 4.37 64 1018.1
20260507032138 7 309 0.0 0.0 0.00 5.49 4.37 65 1018.1
20260507032041 7 310 0.0 0.0 0.00 5.49 4.37 62 1018.1
20260507031915 7 310 0.0 0.0 0.00 5.49 4.37 60 1018.1
20260507031810 7 310 0.0 0.0 0.00 5.49 4.37 59 1018.1
20260507031718 7 310 0.0 0.0 0.00 5.49 4.37 58 1018.1
20260507031641 7 310 0.0 0.0 0.00 5.49 4.37 59 1018.1
20260507031613 7 310 0.0 0.0 0.00 5.49 4.37 59 1018.1
20260507031518 7 310 0.0 0.0 0.00 5.49 4.37 58 1018.1
20260507031412 8 310 0.0 0.0 0.00 5.49 4.37 57 1018.1
20260507031307 7 310 0.0 0.0 0.00 5.49 4.37 57 1018.1
20260507031231 7 310 0.0 0.0 0.00 5.49 4.37 56 1018.1
20260507031125 7 310 0.0 0.0 0.00 5.49 4.37 56 1018.1
20260507031011 7 310 0.0 0.0 0.00 5.49 4.37 56 1018.1
20260507030906 7 310 0.0 0.0 0.00 5.49 4.37 55 1018.1
20260507030812 7 310 0.0 0.0 0.00 5.49 4.37 56 1018.1
20260507030705 7 310 0.0 0.0 0.00 5.49 4.37 56 1018.2
20260507030620 7 310 0.0 0.0 0.00 5.49 4.37 57 1018.2
20260507030523 7 310 0.0 0.0 0.00 5.49 4.37 58 1018.2
20260507030418 7 310 0.0 0.0 0.00 5.49 4.37 58 1018.1
20260507030317 7 310 0.0 0.0 0.00 5.49 4.37 60 1018.2
20260507030222 7 310 0.0 0.0 0.00 5.49 4.37 59 1018.1
20260507030158 7 310 0.0 0.0 0.00 5.49 4.37 60 1018.1
20260507030055 7 310 0.0 0.0 0.00 5.49 4.37 63 1018.1
20260507030017 7 309 0.0 0.0 0.00 5.49 4.37 63 1018.1
20260507025910 7 310 0.0 0.0 0.00 6.17 4.37 62 1018.1
20260507025814 7 310 0.0 0.0 0.00 6.17 4.37 64 1018.1
20260507025709 7 310 0.0 0.0 0.00 6.17 4.37 63 1018.2
20260507025608 7 310 0.0 0.0 0.00 6.17 4.37 62 1018.1
20260507025533 7 310 0.0 0.0 0.00 6.17 4.37 63 1018.1
20260507025406 7 310 0.0 0.0 0.00 6.17 4.37 62 1018.1
20260507025310 7 310 0.0 0.0 0.00 6.17 4.37 60 1018.1
20260507025205 7 310 0.0 0.0 0.00 6.17 4.37 61 1018.1
20260507025129 7 310 0.0 0.0 0.00 6.17 4.37 61 1018.1
20260507025005 7 309 0.0 0.0 0.00 6.17 4.37 62 1018.1
20260507024904 7 309 0.0 0.0 0.00 6.17 4.37 61 1018.1
20260507024828 7 310 0.0 0.0 0.00 6.17 4.37 61 1018.1
20260507024703 7 310 0.0 0.0 0.00 6.17 4.37 62 1018.0
20260507024638 7 309 0.0 0.0 0.00 6.17 4.37 62 1018.0
20260507024618 7 310 0.0 0.0 0.00 6.17 4.37 64 1018.0
20260507024522 7 310 0.0 0.0 0.00 6.17 4.37 67 1018.0
20260507024417 7 310 0.0 0.0 0.00 6.17 4.37 68 1018.0
20260507024311 7 310 0.0 0.0 0.00 6.17 4.37 67 1018.0
20260507024235 7 310 0.0 0.0 0.00 6.17 4.37 66 1018.0
20260507024113 7 309 0.0 0.0 0.00 6.17 4.37 65 1018.0
20260507024017 7 310 0.0 0.0 0.00 6.17 4.37 64 1017.9
20260507023912 8 310 0.0 0.0 0.00 6.17 4.37 64 1017.9
20260507023807 8 309 0.0 0.0 0.00 6.17 4.37 63 1017.9
20260507023711 8 310 0.0 0.0 0.00 6.17 4.37 62 1017.9
20260507023605 8 310 0.0 0.0 0.00 6.17 4.37 62 1017.9
20260507023504 8 310 0.0 0.0 0.00 6.17 4.37 61 1017.9
20260507023407 8 310 0.0 0.0 0.00 6.17 4.37 59 1017.9
20260507023302 8 310 0.0 0.0 0.00 6.17 4.37 55 1017.9
20260507023226 8 310 0.0 0.0 0.00 6.17 4.37 55 1017.9
20260507023121 8 310 0.0 0.0 0.00 6.17 4.37 56 1017.9
20260507023042 7 310 0.0 0.0 0.00 6.17 4.37 56 1017.8
20260507023018 8 310 0.0 0.0 0.00 6.17 4.37 56 1017.8
20260507022920 8 309 0.0 0.0 0.00 6.17 4.37 56 1017.9
20260507022819 8 310 0.0 0.0 0.00 6.17 4.37 58 1017.9
20260507022714 8 310 0.0 0.0 0.00 6.17 4.37 58 1017.9
20260507022638 8 310 0.0 0.0 0.00 6.17 4.37 57 1017.8
20260507022511 8 310 0.0 0.0 0.00 6.17 4.37 57 1017.8
20260507022415 8 309 0.0 0.0 0.00 6.17 4.37 57 1017.8
20260507022309 8 309 0.0 0.0 0.00 6.17 4.37 58 1017.8
20260507022205 8 310 0.0 0.0 0.00 6.17 4.37 60 1017.8
20260507022113 8 310 0.0 0.0 0.00 6.17 4.37 60 1017.8
20260507022008 8 310 0.0 0.0 0.00 6.17 4.37 61 1017.8
20260507021903 8 309 0.0 0.0 0.00 6.17 4.37 62 1017.8
20260507021806 8 310 0.0 0.0 0.00 6.17 4.37 62 1017.8
20260507021730 8 310 0.0 0.0 0.00 6.17 4.37 62 1017.8
20260507021624 8 310 0.0 0.0 0.00 6.17 4.37 58 1017.8
20260507021548 8 310 0.0 0.0 0.00 6.17 4.37 58 1017.8
20260507021519 8 310 0.0 0.0 0.00 6.17 4.37 58 1017.8
20260507021414 8 310 0.0 0.0 0.00 6.17 4.37 58 1017.8
20260507021303 8 310 0.0 0.0 0.00 6.17 4.37 59 1017.7
20260507021216 8 309 0.0 0.0 0.00 6.17 4.37 59 1017.7
20260507021122 8 309 0.0 0.0 0.00 6.17 4.37 59 1017.8
20260507021013 8 310 0.0 0.0 0.00 6.17 4.37 61 1017.7
20260507020908 8 310 0.0 0.0 0.00 6.17 4.37 60 1017.7
20260507020812 8 310 0.0 0.0 0.00 6.17 4.37 60 1017.7
20260507020707 8 310 0.0 0.0 0.00 6.17 4.37 60 1017.6
20260507020605 8 310 0.0 0.0 0.00 6.17 4.37 61 1017.6
20260507020509 8 310 0.0 0.0 0.00 6.17 4.37 62 1017.6
20260507020424 8 310 0.0 0.0 0.00 6.17 4.37 63 1017.6
20260507020307 8 309 0.0 0.0 0.00 6.17 4.37 63 1017.6
20260507020223 8 310 0.0 0.0 0.00 6.17 4.37 63 1017.6
20260507020137 8 310 0.0 0.0 0.00 6.17 4.37 62 1017.6
20260507020026 8 309 0.0 0.0 0.00 6.17 4.37 62 1017.6
20260507015903 9 310 0.0 0.0 0.00 6.78 4.37 61 1017.6
20260507015818 9 310 0.0 0.0 0.00 6.78 4.37 61 1017.7
20260507015723 9 310 0.0 0.0 0.00 6.78 4.37 60 1017.6
20260507015618 9 310 0.0 0.0 0.00 6.78 4.37 61 1017.7
20260507015512 9 310 0.0 0.0 0.00 6.78 4.37 61 1017.6
20260507015416 9 310 0.0 0.0 0.00 6.78 4.37 58 1017.6
20260507015311 9 310 0.0 0.0 0.00 6.78 4.37 54 1017.6
20260507015215 9 310 0.0 0.0 0.00 6.78 4.37 53 1017.6
20260507015113 9 310 0.0 0.0 0.00 6.78 4.37 55 1017.5
20260507015008 9 310 0.0 0.0 0.00 6.78 4.37 53 1017.5
20260507014913 9 310 0.0 0.0 0.00 6.78 4.37 53 1017.6
20260507014807 9 309 0.0 0.0 0.00 6.78 4.37 54 1017.6
20260507014702 9 310 0.0 0.0 0.00 6.78 4.37 53 1017.6
20260507014626 9 310 0.0 0.0 0.00 6.78 4.37 51 1017.5
20260507014530 9 309 0.0 0.0 0.00 6.78 4.37 51 1017.5
20260507014507 9 310 0.0 0.0 0.00 6.78 4.37 51 1017.5
20260507014408 10 310 0.0 0.0 0.00 6.78 4.37 51 1017.6
20260507014323 10 310 0.0 0.0 0.00 6.78 4.37 52 1017.5
20260507014227 10 309 0.0 0.0 0.00 6.78 4.37 52 1017.5
20260507014150 10 310 0.0 0.0 0.00 6.78 4.37 52 1017.5
20260507014023 10 309 0.0 0.0 0.00 6.78 4.37 53 1017.5
20260507013926 10 310 0.0 0.0 0.00 6.78 4.37 53 1017.5
20260507013821 10 310 0.0 0.0 0.00 6.78 4.37 53 1017.5
20260507013716 10 309 0.0 0.0 0.00 6.78 4.37 52 1017.5
20260507013625 10 310 0.0 0.0 0.00 6.78 4.37 52 1017.5
20260507013520 10 310 0.0 0.0 0.00 6.78 4.37 52 1017.5
20260507013414 10 309 0.0 0.0 0.00 6.78 4.37 50 1017.4
20260507013339 10 310 0.0 0.0 0.00 6.78 4.37 50 1017.4
20260507013212 10 310 0.0 0.0 0.00 6.78 4.37 50 1017.4
20260507013136 10 310 0.0 0.0 0.00 6.78 4.37 51 1017.4
20260507013031 10 310 0.0 0.0 0.00 6.78 4.37 52 1017.4
20260507013012 11 310 0.0 0.0 0.00 6.78 4.37 53 1017.4
20260507012914 11 310 0.0 0.0 0.00 6.78 4.37 52 1017.4
20260507012813 11 310 0.0 0.0 0.00 6.78 4.37 50 1017.3
20260507012737 11 309 0.0 0.0 0.00 6.78 4.37 50 1017.3
20260507012612 11 310 0.0 0.0 0.00 6.78 4.37 50 1017.3
20260507012506 11 310 0.0 0.0 0.00 6.78 4.37 50 1017.3
20260507012410 11 310 0.0 0.0 0.00 6.78 4.37 50 1017.3
20260507012306 11 310 0.0 0.0 0.00 6.78 4.37 50 1017.3
20260507012230 11 310 0.0 0.0 0.00 6.78 4.37 49 1017.3
20260507012128 12 310 0.0 0.0 0.00 6.78 4.37 50 1017.2
20260507012002 12 310 0.0 0.0 0.00 6.78 4.37 49 1017.2
20260507011906 12 309 0.0 0.0 0.00 6.78 4.37 49 1017.2
20260507011821 12 310 0.0 0.0 0.00 6.78 4.37 48 1017.3
20260507011725 12 310 0.0 0.0 0.00 6.78 4.37 49 1017.3
20260507011621 12 310 0.0 0.0 0.00 6.78 4.37 50 1017.2
20260507011541 12 309 0.0 0.0 0.00 6.78 4.37 51 1017.2
20260507011515 12 309 0.0 0.0 0.00 6.78 4.37 51 1017.2
20260507011424 12 309 0.0 0.0 0.00 6.78 4.37 50 1017.2
20260507011318 13 310 0.0 0.0 0.00 6.78 4.37 49 1017.2
20260507011213 13 310 0.0 0.0 0.00 6.78 4.37 46 1017.2
20260507011118 13 310 0.0 0.0 0.00 6.78 4.37 47 1017.2
20260507011012 13 310 0.0 0.0 0.00 6.78 4.37 47 1017.2
20260507010812 13 310 0.0 0.0 0.00 6.78 4.37 44 1017.2
20260507010730 13 309 0.0 0.0 0.00 6.78 4.37 43 1017.2
20260507010613 13 310 0.0 0.0 0.00 6.78 4.37 43 1017.2
20260507010508 13 310 0.0 0.0 0.00 6.78 4.37 43 1017.1
20260507010403 13 310 0.0 0.0 0.00 6.78 4.37 38 1017.1
20260507010307 13 309 0.0 0.0 0.00 6.78 4.37 38 1017.1
20260507010202 13 288 0.0 0.0 0.00 6.78 4.37 38 1017.2
20260507010137 13 288 0.0 0.0 0.00 6.78 4.37 38 1017.2
20260507010050 13 284 0.0 0.0 0.00 6.78 4.37 39 1017.1
20260507010021 13 348 0.0 0.0 0.00 6.78 4.37 38 1017.2
20260507005914 14 25 0.0 0.0 0.00 7.24 4.37 38 1017.1
20260507005818 14 33 0.0 0.0 0.00 7.24 4.37 37 1017.1
20260507005713 14 33 0.0 0.0 0.00 7.24 4.37 37 1017.1
20260507005608 14 33 0.0 8.0 0.00 7.24 4.37 37 1017.1
20260507005512 14 67 0.0 8.0 0.00 7.24 4.37 36 1017.1
20260507005407 14 68 0.0 8.0 0.00 7.24 4.37 37 1017.1
20260507005335 14 45 0.0 8.0 0.00 7.24 4.37 36 1017.1
20260507005209 14 283 0.0 8.0 0.00 7.24 4.37 36 1017.1
20260507005104 15 269 0.0 8.0 0.00 7.24 4.37 36 1017.1
20260507005008 15 269 0.0 8.0 0.00 7.24 4.37 35 1017.1
20260507004903 15 263 1.6 8.0 0.00 7.24 4.37 35 1017.1
20260507004827 15 331 1.6 8.0 0.00 7.24 4.37 35 1017.1
20260507004702 15 290 0.0 6.4 0.00 7.24 4.37 35 1017.1
20260507004638 15 309 0.0 6.4 0.00 7.24 4.37 35 1017.1
20260507004621 15 312 0.0 6.4 0.00 7.24 4.37 35 1017.0
20260507004526 15 348 0.0 6.4 0.00 7.24 4.37 35 1017.0
20260507004420 15 347 0.0 6.4 0.00 7.24 4.37 34 1017.1
20260507004314 15 94 1.6 6.4 0.00 7.24 4.37 34 1017.1
20260507004218 15 321 1.6 6.4 0.00 7.24 4.37 34 1017.1
20260507004132 15 313 0.0 1.6 0.00 7.24 4.37 35 1017.1
20260507004015 15 3 0.0 4.8 0.00 7.24 4.37 35 1017.0
20260507003914 15 40 0.0 4.8 0.00 7.24 4.37 34 1017.1
20260507003809 15 84 0.0 4.8 0.00 7.24 4.37 35 1017.1
20260507003713 15 13 0.0 4.8 0.00 7.24 4.37 35 1017.1
20260507003608 15 320 0.0 4.8 0.00 7.24 4.37 35 1017.1
20260507003503 15 320 0.0 4.8 0.00 7.24 4.37 35 1017.1
20260507003407 15 320 0.0 4.8 0.00 7.24 4.37 35 1017.1
20260507003302 15 320 1.6 4.8 0.00 7.24 4.37 34 1017.1
20260507003230 15 325 1.6 4.8 0.00 7.24 4.37 34 1017.1
20260507003105 15 323 0.0 0.0 0.00 7.24 4.37 34 1017.0
20260507003050 15 323 0.0 0.0 0.00 7.24 4.37 34 1017.0
20260507003020 15 323 0.0 0.0 0.00 7.24 4.37 35 1017.1
20260507002926 15 33 0.0 0.0 0.00 7.24 4.37 34 1017.1
20260507002817 16 40 0.0 0.0 0.00 7.24 4.37 33 1017.1
20260507002720 16 347 0.0 0.0 0.00 7.24 4.37 35 1017.0
20260507002615 16 79 0.0 0.0 0.00 7.24 4.37 35 1017.1
20260507002514 16 345 0.0 0.0 0.00 7.24 4.37 35 1017.1
20260507002417 16 49 0.0 0.0 0.00 7.24 4.37 34 1017.1
20260507002313 16 320 0.0 0.0 0.00 7.24 4.37 34 1017.1
20260507002207 16 330 0.0 0.0 0.00 7.24 4.37 34 1017.1
20260507002103 16 330 0.0 0.0 0.00 7.24 4.37 34 1017.0
20260507002007 16 329 0.0 0.0 0.00 7.24 4.37 34 1017.0
20260507001902 16 333 0.0 0.0 0.00 7.24 4.37 34 1017.0
20260507001830 16 333 0.0 0.0 0.00 7.24 4.37 33 1017.0
20260507001705 15 30 0.0 6.4 0.00 7.24 4.37 33 1017.0
20260507001632 15 354 0.0 6.4 0.00 7.24 4.37 33 1017.0
20260507001620 15 355 0.0 6.4 0.00 7.24 4.37 33 1017.0
20260507001524 15 148 0.0 6.4 0.00 7.24 4.37 34 1017.0
20260507001417 15 139 0.0 6.4 0.00 7.24 4.37 34 1017.0
20260507001322 15 75 0.0 6.4 0.00 7.24 4.37 35 1017.0
20260507001217 15 38 0.0 6.4 0.00 7.24 4.37 34 1017.0
20260507001126 15 38 1.6 6.4 0.00 7.24 4.37 34 1017.0
20260507001020 15 333 3.2 8.0 0.00 7.24 4.37 33 1017.0
20260507000934 15 62 4.8 8.0 0.00 7.24 4.37 34 1017.0
20260507000836 15 326 4.8 8.0 0.00 7.24 4.37 34 1017.0
20260507000740 15 13 3.2 12.9 0.00 7.24 4.37 34 1016.9
20260507000614 15 42 1.6 12.9 0.00 7.24 4.37 34 1017.0
20260507000509 15 339 1.6 12.9 0.00 7.24 4.37 35 1017.0
20260507000413 15 41 1.6 12.9 0.00 7.24 4.37 34 1017.1
20260507000313 15 56 3.2 12.9 0.00 7.24 4.37 34 1017.0
20260507000206 15 356 4.8 12.9 0.00 7.24 4.37 34 1017.1
20260507000142 15 340 4.8 12.9 0.00 7.24 4.37 33 1017.0
20260507000009 15 335 6.4 12.9 0.00 7.24 4.37 33 1017.1
20260506235923 15 353 6.4 12.9 0.00 7.24 4.37 33 1017.1
20260506235846 15 319 6.4 12.9 0.00 7.44 4.37 32 1017.1
20260506235748 15 307 4.8 12.9 0.00 7.44 4.37 33 1017.1
20260506235642 15 57 4.8 11.3 0.00 7.44 4.37 32 1017.1
20260506235524 15 284 1.6 11.3 0.00 7.44 4.37 32 1017.1
20260506235403 16 309 0.0 12.9 0.00 7.44 4.37 32 1017.1
20260506235318 16 306 1.6 12.9 0.00 7.44 4.37 32 1017.1
20260506235222 16 310 3.2 12.9 0.00 7.44 4.37 32 1017.2
20260506235117 16 338 1.6 12.9 0.00 7.44 4.37 32 1017.1
20260506235011 16 314 4.8 12.9 0.00 7.44 4.37 32 1017.2
20260506234914 16 301 3.2 12.9 0.00 7.44 4.37 33 1017.2
20260506234829 16 323 1.6 12.9 0.00 7.44 4.37 33 1017.1
20260506234716 16 65 3.2 12.9 0.00 7.44 4.37 32 1017.1
20260506234646 16 271 3.2 12.9 0.00 7.44 4.37 31 1017.1
20260506234611 16 1 1.6 12.9 0.00 7.44 4.37 31 1017.1
20260506234535 16 25 1.6 6.4 0.00 7.44 4.37 33 1017.1
20260506234409 16 61 3.2 9.7 0.00 7.44 4.37 32 1017.1
20260506234304 16 309 1.6 9.7 0.00 7.44 4.37 32 1017.1
20260506234208 16 57 1.6 9.7 0.00 7.44 4.37 33 1017.1
20260506234103 16 49 0.0 14.5 0.00 7.44 4.37 34 1017.1
20260506234002 16 44 0.0 14.5 0.00 7.44 4.37 33 1017.1
20260506233906 16 294 0.0 14.5 0.00 7.44 4.37 33 1017.1
20260506233802 16 319 0.0 14.5 0.00 7.44 4.37 32 1017.0
20260506233726 16 319 1.6 14.5 0.00 7.44 4.37 32 1017.0
20260506233621 16 270 1.6 14.5 0.00 7.44 4.37 32 1017.1
20260506233515 16 279 0.0 14.5 0.00 7.44 4.37 32 1017.1
20260506233420 16 103 4.8 14.5 0.00 7.44 4.37 33 1017.1
20260506233318 16 24 4.8 14.5 0.00 7.44 4.37 32 1017.1
20260506233222 16 127 1.6 14.5 0.00 7.44 4.37 33 1017.0
20260506233116 16 302 1.6 14.5 0.00 7.44 4.37 33 1017.1
20260506233036 16 27 0.0 14.5 0.00 7.44 4.37 33 1017.1
20260506233014 16 309 0.0 14.5 0.00 7.44 4.37 33 1017.0
20260506232916 16 344 0.0 14.5 0.00 7.44 4.37 32 1017.0
20260506232811 16 50 1.6 14.5 0.00 7.44 4.37 33 1017.0
20260506232707 16 340 4.8 14.5 0.00 7.44 4.37 32 1016.9
20260506232614 16 34 3.2 14.5 0.00 7.44 4.37 33 1016.9
20260506232509 16 336 0.0 12.9 0.00 7.44 4.37 34 1016.9
20260506232404 16 309 0.0 0.0 0.00 7.44 4.37 34 1016.9
20260506232308 16 24 0.0 0.0 0.00 7.44 4.37 33 1017.0
20260506232203 16 276 0.0 0.0 0.00 7.44 4.37 33 1017.0
20260506232127 16 287 0.0 0.0 0.00 7.44 4.37 33 1017.0
20260506232002 16 315 0.0 0.0 0.00 7.44 4.37 32 1016.9
20260506231901 16 331 0.0 0.0 0.00 7.44 4.37 33 1016.9
20260506231825 16 330 0.0 0.0 0.00 7.44 4.37 34 1016.9
20260506231741 16 343 0.0 0.0 0.00 7.44 4.37 34 1017.0
20260506231623 16 102 0.0 0.0 0.00 7.44 4.37 34 1017.0
20260506231600 16 102 0.0 3.2 0.00 7.44 4.37 32 1016.9
20260506231538 16 105 0.0 3.2 0.00 7.44 4.37 32 1017.0
20260506231421 16 60 0.0 14.5 0.00 7.44 4.37 34 1016.9
20260506231316 16 26 0.0 14.5 0.00 7.44 4.37 35 1017.0
20260506231211 16 330 0.0 14.5 0.00 7.44 4.37 34 1016.9
20260506231139 16 304 0.0 14.5 0.00 7.44 4.37 33 1017.0
20260506231013 16 314 0.0 14.5 0.00 7.44 4.37 34 1016.9
20260506230918 16 283 0.0 14.5 0.00 7.44 4.37 34 1016.9
20260506230832 16 65 1.6 16.1 0.00 7.44 4.37 33 1016.9
20260506230715 16 333 4.8 16.1 0.00 7.44 4.37 32 1016.9
20260506230609 16 7 4.8 17.7 0.00 7.44 4.37 33 1016.9
20260506230504 16 347 3.2 17.7 0.00 7.44 4.37 32 1016.9
20260506230412 16 36 4.8 17.7 0.00 7.44 4.37 32 1016.9
20260506230307 16 317 3.2 19.3 0.00 7.44 4.37 33 1017.0
20260506230202 16 329 4.8 19.3 0.00 7.44 4.37 33 1016.9
20260506230136 16 32 4.8 19.3 0.00 7.44 4.37 32 1016.9
20260506230028 16 302 6.4 19.3 0.00 7.44 4.37 32 1017.0
20260506230017 16 49 6.4 19.3 0.00 7.44 4.37 32 1017.0
20260506225919 16 59 6.4 19.3 0.00 7.95 4.37 33 1016.9
20260506225833 16 33 4.8 19.3 0.00 7.95 4.37 34 1016.9
20260506225701 16 327 4.8 19.3 0.00 7.95 4.37 33 1016.9
20260506225615 16 49 8.0 19.3 0.00 7.95 4.37 32 1017.0
20260506225520 16 344 9.7 19.3 0.00 7.95 4.37 32 1017.0
20260506225413 16 38 6.4 14.5 0.00 7.95 4.37 33 1017.0
20260506225308 16 36 4.8 14.5 0.00 7.95 4.37 34 1016.9
20260506225203 16 339 3.2 14.5 0.00 7.95 4.37 33 1017.0
20260506225107 16 32 1.6 16.1 0.00 7.95 4.37 34 1016.9
20260506225006 16 330 1.6 16.1 0.00 7.95 4.37 32 1016.9
20260506224930 16 310 0.0 16.1 0.00 7.95 4.37 32 1016.9
20260506224805 16 319 1.6 16.1 0.00 7.95 4.37 34 1016.9
20260506224720 16 8 3.2 17.7 0.00 7.95 4.37 32 1016.9
20260506224624 16 306 3.2 17.7 0.00 7.95 4.37 32 1016.9
20260506224554 16 305 3.2 17.7 0.00 7.95 4.37 33 1017.0
20260506224520 16 350 4.8 17.7 0.00 7.95 4.37 33 1017.0
20260506224413 16 65 4.8 17.7 0.00 7.95 4.37 33 1017.0
20260506224321 16 15 6.4 17.7 0.00 7.95 4.37 33 1016.9
20260506224216 16 51 8.0 17.7 0.00 7.95 4.37 33 1016.9
20260506224111 16 57 8.0 17.7 0.00 7.95 4.37 33 1017.0
20260506224015 16 28 11.3 17.7 0.00 7.95 4.37 32 1016.9
20260506223910 16 331 4.8 17.7 0.00 7.95 4.37 32 1017.0
20260506223805 16 311 0.0 8.0 0.00 7.95 4.37 33 1016.9
20260506223709 16 37 0.0 8.0 0.00 7.95 4.37 33 1016.9
20260506223606 16 23 1.6 11.3 0.00 7.95 4.37 33 1016.9
20260506223510 16 330 1.6 11.3 0.00 7.95 4.37 35 1017.0
20260506223405 16 41 1.6 17.7 0.00 7.95 4.37 34 1017.0
20260506223329 16 75 1.6 17.7 0.00 7.95 4.37 35 1017.0
20260506223204 16 35 1.6 19.3 0.00 7.95 4.37 34 1017.0
20260506223138 15 27 1.6 19.3 0.00 7.95 4.37 33 1017.0
20260506223119 16 100 3.2 19.3 0.00 7.95 4.37 33 1017.0
20260506223025 16 9 4.8 19.3 0.00 7.95 4.37 32 1017.0
20260506222902 16 318 4.8 19.3 0.00 7.95 4.37 33 1017.0
20260506222817 16 307 6.4 19.3 0.00 7.95 4.37 33 1017.0
20260506222721 16 318 9.7 19.3 0.00 7.95 4.37 33 1017.0
20260506222616 16 15 11.3 19.3 0.00 7.95 4.37 32 1017.0
20260506222540 16 351 9.7 19.3 0.00 7.95 4.37 32 1017.0
20260506222414 16 333 9.7 14.5 0.00 7.95 4.37 33 1017.0
20260506222309 16 279 8.0 14.5 0.00 7.95 4.37 32 1017.0
20260506222217 16 332 6.4 12.9 0.00 7.95 4.37 33 1017.1
20260506222112 16 342 6.4 11.3 0.00 7.95 4.37 33 1017.0
20260506222007 16 25 6.4 11.3 0.00 7.95 4.37 33 1017.0
20260506221911 16 333 6.4 11.3 0.00 7.95 4.37 33 1017.0
20260506221806 16 33 4.8 14.5 0.00 7.95 4.37 32 1017.1
20260506221730 16 303 3.2 14.5 0.00 7.95 4.37 32 1017.1
20260506221604 16 337 1.6 14.5 0.00 7.95 4.37 31 1017.0
20260506221521 16 31 1.6 14.5 0.00 7.95 4.37 32 1017.1
20260506221503 16 18 3.2 14.5 0.00 7.95 4.37 32 1017.1
20260506221407 16 266 4.8 14.5 0.00 7.95 4.37 32 1017.1
20260506221302 16 320 4.8 14.5 0.00 7.95 4.37 33 1017.1
20260506221226 16 302 4.8 14.5 0.00 7.95 4.37 33 1017.1
20260506221121 16 295 6.4 14.5 0.00 7.95 4.37 33 1017.1
20260506221016 16 1 3.2 14.5 0.00 7.95 4.37 34 1017.1
20260506220920 16 314 3.2 9.7 0.00 7.95 4.37 33 1017.1
20260506220814 16 66 3.2 9.7 0.00 7.95 4.37 33 1017.1
20260506220722 16 60 3.2 9.7 0.00 7.95 4.37 34 1017.2
20260506220617 16 59 3.2 9.7 0.00 7.95 4.37 34 1017.1
20260506220511 16 336 4.8 9.7 0.00 7.95 4.37 34 1017.1
20260506220415 16 285 4.8 9.7 0.00 7.95 4.37 34 1017.1
20260506220330 16 6 1.6 8.0 0.00 7.95 4.37 35 1017.1
20260506220213 16 312 0.0 9.7 0.00 7.95 4.37 33 1017.1
20260506220154 15 27 0.0 9.7 0.00 7.95 4.37 33 1017.1
20260506220119 16 48 0.0 9.7 0.00 7.95 4.37 33 1017.1
20260506220012 16 332 0.0 9.7 0.00 7.95 4.37 32 1017.2
20260506215904 16 318 0.0 12.9 0.00 8.20 4.37 32 1017.3
20260506215820 16 279 0.0 12.9 0.00 8.20 4.37 33 1017.2
20260506215724 16 281 1.6 12.9 0.00 8.20 4.37 34 1017.2
20260506215638 16 289 3.2 12.9 0.00 8.20 4.37 33 1017.2
20260506215521 16 281 4.8 12.9 0.00 8.20 4.37 32 1017.2
20260506215416 16 272 4.8 12.9 0.00 8.20 4.37 32 1017.3
20260506215324 16 273 4.8 12.9 0.00 8.20 4.37 33 1017.3
20260506215219 16 290 4.8 14.5 0.00 8.20 4.37 35 1017.3
20260506215113 16 323 3.2 14.5 0.00 8.20 4.37 34 1017.3
20260506215007 16 322 0.0 14.5 0.00 8.20 4.37 33 1017.3
20260506214911 16 309 0.0 14.5 0.00 8.20 4.37 33 1017.3
20260506214805 16 331 1.6 14.5 0.00 8.20 4.37 32 1017.3
20260506214730 16 341 3.2 14.5 0.00 8.20 4.37 34 1017.3
20260506214608 16 319 3.2 14.5 0.00 8.20 4.37 33 1017.3
20260506214515 16 18 6.4 14.5 0.00 8.20 4.37 33 1017.4
20260506214502 16 295 6.4 14.5 0.00 8.20 4.37 33 1017.4
20260506214425 16 321 8.0 14.5 0.00 8.20 4.37 33 1017.4
20260506214328 16 325 9.7 12.9 0.00 8.20 4.37 33 1017.4
20260506214223 16 324 4.8 12.9 0.00 8.20 4.37 33 1017.4
20260506214126 16 278 3.2 12.9 0.00 8.20 4.37 33 1017.4
20260506214021 16 310 0.0 12.9 0.00 8.20 4.37 36 1017.3
20260506213915 16 349 0.0 16.1 0.00 8.20 4.37 36 1017.3
20260506213824 16 42 0.0 16.1 0.00 8.20 4.37 35 1017.3
20260506213719 16 39 0.0 16.1 0.00 8.20 4.37 33 1017.4
20260506213625 16 49 3.2 16.1 0.00 8.20 4.37 35 1017.4
20260506213518 16 221 4.8 16.1 0.00 8.20 4.37 33 1017.4
20260506213412 16 64 4.8 16.1 0.00 8.20 4.37 34 1017.4
20260506213316 16 44 4.8 16.1 0.00 8.20 4.37 34 1017.4
20260506213211 16 28 8.0 16.1 0.00 8.20 4.37 33 1017.4
20260506213129 16 338 6.4 19.3 0.00 8.20 4.37 33 1017.4
20260506213109 16 49 8.0 19.3 0.00 8.20 4.37 33 1017.4
20260506213034 16 47 6.4 19.3 0.00 8.20 4.37 35 1017.4
20260506212935 16 64 4.8 19.3 0.00 8.20 4.37 35 1017.4
20260506212809 16 308 4.8 19.3 0.00 8.20 4.37 34 1017.4
20260506212715 16 342 3.2 19.3 0.00 8.20 4.37 35 1017.4
20260506212608 16 97 3.2 19.3 0.00 8.20 4.37 35 1017.4
20260506212503 16 30 6.4 19.3 0.00 8.20 4.37 33 1017.4
20260506212427 16 86 8.0 19.3 0.00 8.20 4.37 33 1017.4
20260506212307 16 353 8.0 19.3 0.00 8.20 4.37 33 1017.4
20260506212201 16 53 4.8 17.7 0.00 8.20 4.37 36 1017.4
20260506212126 16 21 4.8 17.7 0.00 8.20 4.37 35 1017.4
20260506212039 16 47 6.4 17.7 0.00 8.20 4.37 34 1017.3
20260506211922 16 61 3.2 17.7 0.00 8.20 4.37 34 1017.3
20260506211816 16 64 3.2 17.7 0.00 8.20 4.37 34 1017.3
20260506211712 16 346 3.2 17.7 0.00 8.20 4.37 33 1017.4
20260506211602 16 37 4.8 14.5 0.00 8.20 4.37 34 1017.4
20260506211543 15 310 4.8 14.5 0.00 8.20 4.37 33 1017.4
20260506211515 16 321 6.4 14.5 0.00 8.20 4.37 33 1017.4
20260506211409 16 300 4.8 14.5 0.00 8.20 4.37 32 1017.5
20260506211313 16 310 4.8 14.5 0.00 8.20 4.37 32 1017.6
20260506211228 16 73 6.4 14.5 0.00 8.20 4.37 35 1017.6
20260506211109 16 91 6.4 14.5 0.00 8.20 4.37 34 1017.6
20260506211004 16 29 3.2 14.5 0.00 8.20 4.37 36 1017.6
20260506210908 16 42 4.8 14.5 0.00 8.20 4.37 34 1017.6
20260506210807 15 31 6.4 14.5 0.00 8.20 4.37 33 1017.6
20260506210702 15 46 3.2 16.1 0.00 8.20 4.37 33 1017.7
20260506210606 15 67 1.6 16.1 0.00 8.20 4.37 33 1017.6
20260506210521 15 79 0.0 16.1 0.00 8.20 4.37 35 1017.7
20260506210424 15 355 1.6 16.1 0.00 8.20 4.37 36 1017.7
20260506210339 15 342 4.8 16.1 0.00 8.20 4.37 35 1017.7
20260506210221 15 340 8.0 16.1 0.00 8.20 4.37 34 1017.7
20260506210150 15 314 6.4 16.1 0.00 8.20 4.37 34 1017.7
20260506210131 15 310 8.0 16.1 0.00 8.20 4.37 34 1017.7
20260506210040 15 32 8.0 16.1 0.00 8.20 4.37 33 1017.9
20260506205913 15 329 6.4 16.1 0.00 8.20 4.37 34 1017.9
20260506205816 15 257 6.4 16.1 0.00 8.20 4.37 33 1017.9
20260506205711 15 313 3.2 16.1 0.00 8.20 4.37 32 1017.9
20260506205613 15 307 0.0 16.1 0.00 8.20 4.37 35 1017.9
20260506205508 15 276 3.2 16.1 0.00 8.20 4.37 34 1018.0